Wetterdaten: Montag, 24.04.2023
Datum Zeit Temp. Aussen Temp. o. S. Temp +5cm Feuchte Auss Luftdruck Regen Sonnenschein Regendauer Solar Windben Empfang
24.04.2023 00:00 11,1 C 10,6 C 6,7 C 84 % 1001,6 hPa 0,0 l/m 0 min 0 min 0 W/m 32,2 km/h (5 Bft) 95,74 %
24.04.2023 00:02 11,1 C 10,6 C 6,7 C 84 % 1001,6 hPa 0,0 l/m 0 min 0 min 0 W/m 29,0 km/h (5 Bft) 95,74 %
24.04.2023 00:04 11,1 C 10,6 C 6,7 C 84 % 1001,5 hPa 0,0 l/m 0 min 0 min 0 W/m 29,0 km/h (5 Bft) 97,83 %
24.04.2023 00:10 11,1 C 10,6 C 6,7 C 84 % 1001,7 hPa 0,0 l/m 0 min 0 min 0 W/m 35,4 km/h (5 Bft) 96,95 %
24.04.2023 00:12 11,1 C 10,6 C 6,7 C 84 % 1001,7 hPa 0,0 l/m 0 min 0 min 0 W/m 22,5 km/h (4 Bft) 95,74 %
24.04.2023 00:14 11,1 C 10,6 C 6,7 C 84 % 1001,6 hPa 0,0 l/m 0 min 0 min 0 W/m 29,0 km/h (5 Bft) 95,83 %
24.04.2023 00:16 11,1 C 10,6 C 7,2 C 84 % 1001,6 hPa 0,0 l/m 0 min 0 min 0 W/m 29,0 km/h (5 Bft) 95,74 %
24.04.2023 00:18 11,1 C 10,6 C 6,7 C 84 % 1001,6 hPa 0,0 l/m 0 min 0 min 0 W/m 12,9 km/h (3 Bft) 96,36 %
24.04.2023 00:20 11,1 C 10,6 C 6,7 C 84 % 1001,5 hPa 0,0 l/m 0 min 0 min 0 W/m 32,2 km/h (5 Bft) 100,00 %
24.04.2023 00:22 11,1 C 10,6 C 7,2 C 84 % 1001,6 hPa 0,0 l/m 0 min 0 min 0 W/m 38,6 km/h (5 Bft) 100,00 %
24.04.2023 00:24 11,1 C 10,6 C 7,2 C 84 % 1001,6 hPa 0,0 l/m 0 min 0 min 0 W/m 29,0 km/h (5 Bft) 97,96 %
24.04.2023 00:26 11,1 C 10,6 C 7,2 C 84 % 1001,6 hPa 0,0 l/m 0 min 0 min 0 W/m 29,0 km/h (5 Bft) 100,00 %
24.04.2023 00:28 11,1 C 10,6 C 7,2 C 84 % 1001,5 hPa 0,0 l/m 0 min 0 min 0 W/m 25,7 km/h (4 Bft) 100,00 %
24.04.2023 00:30 11,1 C 10,6 C 7,2 C 84 % 1001,5 hPa 0,0 l/m 0 min 0 min 0 W/m 25,7 km/h (4 Bft) 97,87 %
24.04.2023 00:32 11,1 C 10,6 C 6,7 C 84 % 1001,6 hPa 0,0 l/m 0 min 0 min 0 W/m 41,8 km/h (6 Bft) 97,87 %
24.04.2023 00:34 11,1 C 10,6 C 7,2 C 83 % 1001,6 hPa 0,0 l/m 0 min 0 min 0 W/m 61,2 km/h (7 Bft) 100,00 %
24.04.2023 00:36 11,2 C 10,6 C 7,2 C 83 % 1001,6 hPa 0,0 l/m 0 min 0 min 0 W/m 32,2 km/h (5 Bft) 97,87 %
24.04.2023 00:38 11,2 C 10,6 C 7,2 C 83 % 1001,6 hPa 0,0 l/m 0 min 0 min 0 W/m 35,4 km/h (5 Bft) 100,00 %
24.04.2023 00:40 11,2 C 10,6 C 7,2 C 83 % 1001,5 hPa 0,0 l/m 0 min 0 min 0 W/m 22,5 km/h (4 Bft) 100,00 %
24.04.2023 00:42 11,2 C 10,6 C 7,2 C 83 % 1001,6 hPa 0,0 l/m 0 min 0 min 0 W/m 32,2 km/h (5 Bft) 97,87 %
24.04.2023 00:44 11,2 C 10,6 C 7,2 C 83 % 1001,6 hPa 0,0 l/m 0 min 0 min 0 W/m 38,6 km/h (5 Bft) 100,00 %
24.04.2023 00:46 11,2 C 10,6 C 7,2 C 83 % 1001,6 hPa 0,0 l/m 0 min 0 min 0 W/m 25,7 km/h (4 Bft) 100,00 %
24.04.2023 00:48 11,2 C 10,6 C 7,2 C 83 % 1001,5 hPa 0,0 l/m 0 min 0 min 0 W/m 22,5 km/h (4 Bft) 97,87 %
24.04.2023 00:50 11,2 C 10,6 C 7,2 C 83 % 1001,6 hPa 0,0 l/m 0 min 0 min 0 W/m 29,0 km/h (5 Bft) 100,00 %
24.04.2023 00:52 11,2 C 10,6 C 7,2 C 83 % 1001,5 hPa 0,0 l/m 0 min 0 min 0 W/m 41,8 km/h (6 Bft) 100,00 %
24.04.2023 00:54 11,2 C 10,6 C 7,2 C 83 % 1001,6 hPa 0,0 l/m 0 min 0 min 0 W/m 22,5 km/h (4 Bft) 97,87 %
24.04.2023 00:56 11,2 C 10,6 C 7,2 C 83 % 1001,6 hPa 0,0 l/m 0 min 0 min 0 W/m 32,2 km/h (5 Bft) 100,00 %
24.04.2023 00:58 11,2 C 10,6 C 6,7 C 83 % 1001,6 hPa 0,0 l/m 0 min 0 min 0 W/m 29,0 km/h (5 Bft) 100,00 %
24.04.2023 01:00 11,2 C 10,6 C 6,7 C 83 % 1001,6 hPa 0,0 l/m 0 min 0 min 0 W/m 16,1 km/h (3 Bft) 100,00 %
24.04.2023 01:02 11,2 C 10,6 C 7,2 C 83 % 1001,6 hPa 0,0 l/m 0 min 0 min 0 W/m 19,3 km/h (3 Bft) 100,00 %
24.04.2023 01:04 11,2 C 10,6 C 7,2 C 83 % 1001,6 hPa 0,0 l/m 0 min 0 min 0 W/m 19,3 km/h (3 Bft) 100,00 %
24.04.2023 01:06 11,2 C 10,6 C 7,2 C 83 % 1001,6 hPa 0,0 l/m 0 min 0 min 0 W/m 19,3 km/h (3 Bft) 100,00 %
24.04.2023 01:08 11,2 C 10,6 C 7,2 C 83 % 1001,7 hPa 0,0 l/m 0 min 0 min 0 W/m 22,5 km/h (4 Bft) 100,00 %
24.04.2023 01:10 11,2 C 10,6 C 7,2 C 83 % 1001,6 hPa 0,0 l/m 0 min 0 min 0 W/m 16,1 km/h (3 Bft) 98,28 %
24.04.2023 01:12 11,2 C 10,6 C 7,2 C 83 % 1001,7 hPa 0,0 l/m 0 min 0 min 0 W/m 32,2 km/h (5 Bft) 95,74 %
24.04.2023 01:14 11,2 C 10,6 C 7,2 C 83 % 1001,7 hPa 0,0 l/m 0 min 0 min 0 W/m 16,1 km/h (3 Bft) 95,83 %
24.04.2023 01:16 11,2 C 10,6 C 7,2 C 83 % 1001,6 hPa 0,0 l/m 0 min 0 min 0 W/m 32,2 km/h (5 Bft) 95,65 %
24.04.2023 01:18 11,2 C 10,6 C 7,2 C 83 % 1001,6 hPa 0,0 l/m 0 min 0 min 0 W/m 19,3 km/h (3 Bft) 95,74 %
24.04.2023 01:20 11,2 C 10,6 C 7,2 C 83 % 1001,5 hPa 0,0 l/m 0 min 0 min 0 W/m 41,8 km/h (6 Bft) 95,74 %
24.04.2023 01:22 11,2 C 10,6 C 7,2 C 83 % 1001,6 hPa 0,0 l/m 0 min 0 min 0 W/m 29,0 km/h (5 Bft) 93,62 %
24.04.2023 01:24 11,2 C 10,6 C 7,2 C 83 % 1001,6 hPa 0,0 l/m 0 min 0 min 0 W/m 22,5 km/h (4 Bft) 95,74 %
24.04.2023 01:26 11,2 C 10,6 C 7,2 C 83 % 1001,6 hPa 0,0 l/m 0 min 0 min 0 W/m 22,5 km/h (4 Bft) 93,62 %
24.04.2023 01:28 11,2 C 10,6 C 7,2 C 83 % 1001,5 hPa 0,0 l/m 0 min 0 min 0 W/m 16,1 km/h (3 Bft) 95,74 %
24.04.2023 01:30 11,2 C 10,6 C 7,2 C 83 % 1001,6 hPa 0,0 l/m 0 min 0 min 0 W/m 16,1 km/h (3 Bft) 95,74 %
24.04.2023 01:32 11,2 C 10,6 C 7,2 C 83 % 1001,6 hPa 0,0 l/m 0 min 0 min 0 W/m 19,3 km/h (3 Bft) 95,74 %
24.04.2023 01:34 11,2 C 10,6 C 7,2 C 83 % 1001,6 hPa 0,0 l/m 0 min 0 min 0 W/m 19,3 km/h (3 Bft) 94,29 %
24.04.2023 01:36 11,2 C 10,6 C 7,2 C 83 % 1001,6 hPa 0,0 l/m 0 min 0 min 0 W/m 9,7 km/h (2 Bft) 95,74 %
24.04.2023 01:38 11,2 C 10,6 C 6,7 C 83 % 1001,6 hPa 0,0 l/m 0 min 0 min 0 W/m 12,9 km/h (3 Bft) 93,48 %
24.04.2023 01:40 11,2 C 10,6 C 6,7 C 84 % 1001,5 hPa 0,0 l/m 0 min 0 min 0 W/m 12,9 km/h (3 Bft) 93,62 %
24.04.2023 01:42 11,2 C 10,6 C 6,7 C 84 % 1001,6 hPa 0,0 l/m 0 min 0 min 0 W/m 29,0 km/h (5 Bft) 94,44 %
24.04.2023 01:44 11,1 C 10,6 C 6,7 C 84 % 1001,6 hPa 0,0 l/m 0 min 0 min 0 W/m 38,6 km/h (5 Bft) 93,48 %
24.04.2023 01:46 11,1 C 10,6 C 6,7 C 84 % 1001,6 hPa 0,0 l/m 0 min 0 min 0 W/m 35,4 km/h (5 Bft) 95,74 %
24.04.2023 01:48 11,1 C 10,6 C 6,7 C 83 % 1001,7 hPa 0,0 l/m 0 min 0 min 0 W/m 22,5 km/h (4 Bft) 97,87 %
24.04.2023 01:50 11,1 C 10,6 C 6,7 C 84 % 1001,6 hPa 0,0 l/m 0 min 0 min 0 W/m 22,5 km/h (4 Bft) 95,74 %
24.04.2023 01:52 11,1 C 10,6 C 6,7 C 84 % 1001,6 hPa 0,0 l/m 0 min 0 min 0 W/m 35,4 km/h (5 Bft) 97,92 %
24.04.2023 01:54 11,1 C 10,6 C 6,7 C 83 % 1001,6 hPa 0,0 l/m 0 min 0 min 0 W/m 35,4 km/h (5 Bft) 97,87 %
24.04.2023 01:56 11,1 C 10,0 C 6,7 C 84 % 1001,6 hPa 0,0 l/m 0 min 0 min 0 W/m 22,5 km/h (4 Bft) 95,65 %
24.04.2023 01:58 11,0 C 10,0 C 6,7 C 84 % 1001,6 hPa 0,0 l/m 0 min 0 min 0 W/m 19,3 km/h (3 Bft) 97,87 %
24.04.2023 02:00 11,0 C 10,0 C 6,7 C 84 % 1001,7 hPa 0,0 l/m 0 min 0 min 0 W/m 29,0 km/h (5 Bft) 97,87 %
24.04.2023 02:02 11,0 C 10,0 C 6,7 C 84 % 1001,6 hPa 0,0 l/m 0 min 0 min 0 W/m 29,0 km/h (5 Bft) 100,00 %
24.04.2023 02:04 10,9 C 10,0 C 6,7 C 84 % 1001,6 hPa 0,0 l/m 0 min 0 min 0 W/m 29,0 km/h (5 Bft) 100,00 %
24.04.2023 02:06 10,9 C 10,0 C 6,7 C 84 % 1001,7 hPa 0,0 l/m 0 min 0 min 0 W/m 29,0 km/h (5 Bft) 96,55 %
24.04.2023 02:08 10,9 C 10,0 C 6,7 C 84 % 1001,6 hPa 0,0 l/m 0 min 0 min 0 W/m 29,0 km/h (5 Bft) 100,00 %
24.04.2023 02:10 10,9 C 10,0 C 6,7 C 84 % 1001,5 hPa 0,0 l/m 0 min 0 min 0 W/m 19,3 km/h (3 Bft) 100,00 %
24.04.2023 02:12 10,9 C 10,0 C 6,7 C 84 % 1001,5 hPa 0,0 l/m 0 min 0 min 0 W/m 16,1 km/h (3 Bft) 97,87 %
24.04.2023 02:14 10,9 C 10,0 C 6,7 C 84 % 1001,6 hPa 0,0 l/m 0 min 0 min 0 W/m 35,4 km/h (5 Bft) 100,00 %
24.04.2023 02:16 10,9 C 10,0 C 6,7 C 84 % 1001,5 hPa 0,0 l/m 0 min 0 min 0 W/m 32,2 km/h (5 Bft) 97,87 %
24.04.2023 02:18 10,8 C 10,0 C 6,7 C 84 % 1001,7 hPa 0,0 l/m 0 min 0 min 0 W/m 35,4 km/h (5 Bft) 97,87 %
24.04.2023 02:20 10,8 C 10,0 C 6,7 C 84 % 1001,6 hPa 0,0 l/m 0 min 0 min 0 W/m 48,3 km/h (6 Bft) 97,87 %
24.04.2023 02:22 10,8 C 10,0 C 6,7 C 83 % 1001,6 hPa 0,0 l/m 0 min 0 min 0 W/m 41,8 km/h (6 Bft) 95,74 %
24.04.2023 02:24 10,8 C 10,0 C 6,7 C 83 % 1001,6 hPa 0,0 l/m 0 min 0 min 0 W/m 16,1 km/h (3 Bft) 95,65 %
24.04.2023 02:26 10,7 C 10,0 C 6,7 C 83 % 1001,6 hPa 0,0 l/m 0 min 0 min 0 W/m 35,4 km/h (5 Bft) 95,74 %
24.04.2023 02:28 10,7 C 10,0 C 6,7 C 83 % 1001,6 hPa 0,0 l/m 0 min 0 min 0 W/m 29,0 km/h (5 Bft) 97,87 %
24.04.2023 02:30 10,6 C 9,4 C 6,1 C 83 % 1001,7 hPa 0,0 l/m 0 min 0 min 0 W/m 12,9 km/h (3 Bft) 43,24 %
24.04.2023 02:32 10,6 C 9,4 C 6,1 C 84 % 1001,7 hPa 0,0 l/m 0 min 0 min 0 W/m 22,5 km/h (4 Bft) 97,87 %
24.04.2023 02:34 10,4 C 9,4 C 6,1 C 84 % 1001,7 hPa 0,0 l/m 0 min 0 min 0 W/m 16,1 km/h (3 Bft) 97,87 %
24.04.2023 02:36 10,4 C 9,4 C 6,1 C 84 % 1001,7 hPa 0,0 l/m 0 min 0 min 0 W/m 16,1 km/h (3 Bft) 97,87 %
24.04.2023 02:38 10,3 C 9,4 C 6,1 C 84 % 1001,8 hPa 0,0 l/m 0 min 0 min 0 W/m 25,7 km/h (4 Bft) 97,83 %
24.04.2023 02:40 10,2 C 9,4 C 6,1 C 84 % 1001,7 hPa 0,0 l/m 0 min 0 min 0 W/m 19,3 km/h (3 Bft) 97,87 %
24.04.2023 02:42 10,1 C 8,9 C 5,6 C 84 % 1001,8 hPa 0,0 l/m 0 min 0 min 0 W/m 22,5 km/h (4 Bft) 97,87 %
24.04.2023 02:44 10,1 C 8,9 C 5,6 C 84 % 1001,7 hPa 0,0 l/m 0 min 0 min 0 W/m 22,5 km/h (4 Bft) 97,87 %
24.04.2023 02:46 10,0 C 8,9 C 5,6 C 84 % 1001,7 hPa 0,0 l/m 0 min 0 min 0 W/m 22,5 km/h (4 Bft) 97,87 %
24.04.2023 02:48 9,9 C 8,9 C 5,6 C 84 % 1001,7 hPa 0,0 l/m 0 min 0 min 0 W/m 25,7 km/h (4 Bft) 95,74 %
24.04.2023 02:50 9,9 C 8,9 C 5,6 C 84 % 1001,6 hPa 0,0 l/m 0 min 0 min 0 W/m 32,2 km/h (5 Bft) 97,87 %
24.04.2023 02:52 9,8 C 8,9 C 5,6 C 84 % 1001,6 hPa 0,0 l/m 0 min 0 min 0 W/m 29,0 km/h (5 Bft) 97,83 %
24.04.2023 02:54 9,8 C 8,9 C 5,6 C 84 % 1001,6 hPa 0,0 l/m 0 min 0 min 0 W/m 19,3 km/h (3 Bft) 97,87 %
24.04.2023 02:56 9,8 C 8,9 C 5,6 C 85 % 1001,7 hPa 0,0 l/m 0 min 0 min 0 W/m 22,5 km/h (4 Bft) 95,74 %
24.04.2023 02:58 9,8 C 8,9 C 5,6 C 85 % 1001,6 hPa 0,0 l/m 0 min 0 min 0 W/m 19,3 km/h (3 Bft) 97,87 %
24.04.2023 03:00 9,7 C 8,9 C 5,6 C 85 % 1001,6 hPa 0,0 l/m 0 min 0 min 0 W/m 19,3 km/h (3 Bft) 100,00 %
24.04.2023 03:02 9,7 C 8,9 C 5,6 C 85 % 1001,7 hPa 0,0 l/m 0 min 0 min 0 W/m 32,2 km/h (5 Bft) 95,83 %
24.04.2023 03:04 9,7 C 8,9 C 5,6 C 85 % 1001,7 hPa 0,0 l/m 0 min 0 min 0 W/m 22,5 km/h (4 Bft) 100,00 %
24.04.2023 03:06 9,6 C 8,9 C 5,6 C 85 % 1001,7 hPa 0,0 l/m 0 min 0 min 0 W/m 16,1 km/h (3 Bft) 100,00 %
24.04.2023 03:08 9,6 C 8,9 C 5,6 C 85 % 1001,7 hPa 0,0 l/m 0 min 0 min 0 W/m 29,0 km/h (5 Bft) 97,87 %
24.04.2023 03:10 9,6 C 8,9 C 5,6 C 85 % 1001,6 hPa 0,0 l/m 0 min 0 min 0 W/m 22,5 km/h (4 Bft) 95,65 %
24.04.2023 03:12 9,6 C 8,9 C 5,6 C 85 % 1001,6 hPa 0,0 l/m 0 min 0 min 0 W/m 25,7 km/h (4 Bft) 93,62 %
24.04.2023 03:14 9,6 C 8,9 C 5,6 C 86 % 1001,7 hPa 0,0 l/m 0 min 0 min 0 W/m 25,7 km/h (4 Bft) 95,74 %
24.04.2023 03:16 9,6 C 8,9 C 5,6 C 86 % 1001,6 hPa 0,0 l/m 0 min 0 min 0 W/m 22,5 km/h (4 Bft) 97,87 %
24.04.2023 03:18 9,6 C 8,9 C 5,6 C 86 % 1001,7 hPa 0,0 l/m 0 min 0 min 0 W/m 19,3 km/h (3 Bft) 97,87 %
24.04.2023 03:20 9,6 C 8,9 C 5,6 C 86 % 1001,7 hPa 0,0 l/m 0 min 0 min 0 W/m 35,4 km/h (5 Bft) 97,92 %
24.04.2023 03:22 9,6 C 8,9 C 5,6 C 86 % 1001,7 hPa 0,0 l/m 0 min 0 min 0 W/m 29,0 km/h (5 Bft) 94,29 %
24.04.2023 03:24 9,6 C 8,9 C 5,6 C 86 % 1001,7 hPa 0,0 l/m 0 min 0 min 0 W/m 22,5 km/h (4 Bft) 97,87 %
24.04.2023 03:26 9,6 C 8,9 C 5,6 C 86 % 1001,6 hPa 0,0 l/m 0 min 0 min 0 W/m 19,3 km/h (3 Bft) 95,74 %
24.04.2023 03:28 9,6 C 8,9 C 5,6 C 86 % 1001,6 hPa 0,0 l/m 0 min 0 min 0 W/m 35,4 km/h (5 Bft) 98,11 %
24.04.2023 03:30 9,6 C 8,9 C 5,6 C 86 % 1001,5 hPa 0,0 l/m 0 min 0 min 0 W/m 38,6 km/h (5 Bft) 97,87 %
24.04.2023 03:32 9,5 C 8,9 C 5,6 C 86 % 1001,6 hPa 0,0 l/m 0 min 0 min 0 W/m 25,7 km/h (4 Bft) 95,74 %
24.04.2023 03:34 9,5 C 8,9 C 5,6 C 86 % 1001,6 hPa 0,0 l/m 0 min 0 min 0 W/m 29,0 km/h (5 Bft) 97,83 %
24.04.2023 03:36 9,5 C 8,9 C 5,6 C 86 % 1001,7 hPa 0,0 l/m 0 min 0 min 0 W/m 22,5 km/h (4 Bft) 97,87 %
24.04.2023 03:38 9,5 C 8,9 C 5,6 C 86 % 1001,7 hPa 0,0 l/m 0 min 0 min 0 W/m 32,2 km/h (5 Bft) 96,00 %
24.04.2023 03:40 9,4 C 8,9 C 5,6 C 86 % 1001,7 hPa 0,0 l/m 0 min 0 min 0 W/m 25,7 km/h (4 Bft) 100,00 %
24.04.2023 03:42 9,4 C 8,9 C 5,6 C 86 % 1001,7 hPa 0,0 l/m 0 min 0 min 0 W/m 45,1 km/h (6 Bft) 97,87 %
24.04.2023 03:44 9,4 C 8,9 C 5,6 C 86 % 1001,6 hPa 0,0 l/m 0 min 0 min 0 W/m 19,3 km/h (3 Bft) 97,87 %
24.04.2023 03:46 9,4 C 8,9 C 5,6 C 86 % 1001,6 hPa 0,0 l/m 0 min 0 min 0 W/m 29,0 km/h (5 Bft) 100,00 %
24.04.2023 03:48 9,4 C 8,9 C 5,6 C 86 % 1001,6 hPa 0,0 l/m 0 min 0 min 0 W/m 19,3 km/h (3 Bft) 100,00 %
24.04.2023 03:50 9,4 C 8,9 C 5,6 C 86 % 1001,6 hPa 0,0 l/m 0 min 0 min 0 W/m 29,0 km/h (5 Bft) 100,00 %
24.04.2023 03:52 9,4 C 8,9 C 5,6 C 86 % 1001,6 hPa 0,0 l/m 0 min 0 min 0 W/m 29,0 km/h (5 Bft) 100,00 %
24.04.2023 03:54 9,4 C 8,9 C 5,6 C 86 % 1001,6 hPa 0,0 l/m 0 min 0 min 0 W/m 19,3 km/h (3 Bft) 100,00 %
24.04.2023 03:56 9,4 C 8,9 C 5,6 C 86 % 1001,7 hPa 0,0 l/m 0 min 0 min 0 W/m 35,4 km/h (5 Bft) 97,87 %
24.04.2023 03:58 9,4 C 8,9 C 5,6 C 86 % 1001,7 hPa 0,0 l/m 0 min 0 min 0 W/m 29,0 km/h (5 Bft) 100,00 %
24.04.2023 04:00 9,4 C 8,9 C 5,6 C 86 % 1001,7 hPa 0,0 l/m 0 min 0 min 0 W/m 35,4 km/h (5 Bft) 100,00 %
24.04.2023 04:02 9,4 C 8,9 C 5,6 C 86 % 1001,7 hPa 0,0 l/m 0 min 0 min 0 W/m 25,7 km/h (4 Bft) 100,00 %
24.04.2023 04:07 9,3 C 8,9 C 5,6 C 86 % 1001,7 hPa 0,0 l/m 0 min 0 min 0 W/m 38,6 km/h (5 Bft) 94,00 %
24.04.2023 04:08 9,3 C 8,9 C 5,6 C 86 % 1001,7 hPa 0,0 l/m 0 min 0 min 0 W/m 12,9 km/h (3 Bft) 91,67 %
24.04.2023 04:10 9,3 C 8,9 C 5,6 C 86 % 1001,6 hPa 0,0 l/m 0 min 0 min 0 W/m 22,5 km/h (4 Bft) 95,65 %
24.04.2023 04:12 9,3 C 8,9 C 5,6 C 86 % 1001,6 hPa 0,0 l/m 0 min 0 min 0 W/m 38,6 km/h (5 Bft) 97,87 %
24.04.2023 04:14 9,3 C 8,9 C 5,6 C 86 % 1001,6 hPa 0,0 l/m 0 min 0 min 0 W/m 25,7 km/h (4 Bft) 97,87 %
24.04.2023 04:16 9,3 C 8,9 C 5,6 C 86 % 1001,7 hPa 0,0 l/m 0 min 0 min 0 W/m 32,2 km/h (5 Bft) 97,87 %
24.04.2023 04:18 9,3 C 8,9 C 5,6 C 86 % 1001,7 hPa 0,0 l/m 0 min 0 min 0 W/m 22,5 km/h (4 Bft) 97,87 %
24.04.2023 04:20 9,3 C 8,9 C 5,6 C 86 % 1001,6 hPa 0,0 l/m 0 min 0 min 0 W/m 29,0 km/h (5 Bft) 97,87 %
24.04.2023 04:22 9,3 C 8,9 C 5,6 C 86 % 1001,6 hPa 0,0 l/m 0 min 0 min 0 W/m 32,2 km/h (5 Bft) 95,74 %
24.04.2023 04:24 9,3 C 8,9 C 5,6 C 87 % 1001,6 hPa 0,0 l/m 0 min 0 min 0 W/m 22,5 km/h (4 Bft) 97,83 %
24.04.2023 04:26 9,3 C 8,9 C 5,6 C 87 % 1001,6 hPa 0,0 l/m 0 min 0 min 0 W/m 29,0 km/h (5 Bft) 95,74 %
24.04.2023 04:28 9,3 C 8,9 C 5,6 C 87 % 1001,6 hPa 0,0 l/m 0 min 0 min 0 W/m 32,2 km/h (5 Bft) 96,30 %
24.04.2023 04:30 9,3 C 8,9 C 5,6 C 87 % 1001,6 hPa 0,0 l/m 0 min 0 min 0 W/m 25,7 km/h (4 Bft) 97,87 %
24.04.2023 04:32 9,3 C 8,9 C 5,6 C 87 % 1001,6 hPa 0,0 l/m 0 min 0 min 0 W/m 25,7 km/h (4 Bft) 96,00 %
24.04.2023 04:34 9,3 C 8,9 C 5,6 C 87 % 1001,6 hPa 0,0 l/m 0 min 0 min 0 W/m 25,7 km/h (4 Bft) 95,74 %
24.04.2023 04:36 9,3 C 8,9 C 5,6 C 87 % 1001,6 hPa 0,0 l/m 0 min 0 min 0 W/m 32,2 km/h (5 Bft) 95,74 %
24.04.2023 04:38 9,3 C 8,9 C 5,6 C 87 % 1001,7 hPa 0,0 l/m 0 min 0 min 0 W/m 29,0 km/h (5 Bft) 100,00 %
24.04.2023 04:40 9,3 C 8,9 C 5,6 C 87 % 1001,6 hPa 0,0 l/m 0 min 0 min 0 W/m 25,7 km/h (4 Bft) 95,74 %
24.04.2023 04:42 9,3 C 8,9 C 5,6 C 87 % 1001,6 hPa 0,0 l/m 0 min 0 min 0 W/m 29,0 km/h (5 Bft) 95,74 %
24.04.2023 04:44 9,3 C 8,9 C 5,6 C 87 % 1001,6 hPa 0,0 l/m 0 min 0 min 0 W/m 29,0 km/h (5 Bft) 95,74 %
24.04.2023 04:46 9,3 C 8,9 C 5,6 C 87 % 1001,6 hPa 0,0 l/m 0 min 0 min 0 W/m 19,3 km/h (3 Bft) 97,87 %
24.04.2023 04:48 9,4 C 8,9 C 5,6 C 87 % 1001,6 hPa 0,0 l/m 0 min 0 min 0 W/m 19,3 km/h (3 Bft) 97,87 %
24.04.2023 04:50 9,4 C 8,9 C 5,6 C 87 % 1001,6 hPa 0,0 l/m 0 min 0 min 0 W/m 22,5 km/h (4 Bft) 97,87 %
24.04.2023 04:52 9,4 C 8,9 C 5,6 C 87 % 1001,7 hPa 0,0 l/m 0 min 0 min 0 W/m 19,3 km/h (3 Bft) 95,65 %
24.04.2023 04:54 9,4 C 8,9 C 5,6 C 87 % 1001,6 hPa 0,0 l/m 0 min 0 min 0 W/m 22,5 km/h (4 Bft) 97,87 %
24.04.2023 04:56 9,4 C 8,9 C 5,6 C 87 % 1001,7 hPa 0,0 l/m 0 min 0 min 0 W/m 29,0 km/h (5 Bft) 95,74 %
24.04.2023 04:58 9,4 C 8,9 C 5,6 C 87 % 1001,7 hPa 0,0 l/m 0 min 0 min 0 W/m 25,7 km/h (4 Bft) 97,87 %
24.04.2023 05:00 9,4 C 8,9 C 5,6 C 87 % 1001,7 hPa 0,0 l/m 0 min 0 min 0 W/m 25,7 km/h (4 Bft) 97,87 %
24.04.2023 05:02 9,4 C 8,9 C 5,6 C 87 % 1001,7 hPa 0,0 l/m 0 min 0 min 0 W/m 22,5 km/h (4 Bft) 97,87 %
24.04.2023 05:04 9,4 C 8,9 C 5,6 C 87 % 1001,7 hPa 0,0 l/m 0 min 0 min 0 W/m 25,7 km/h (4 Bft) 93,75 %
24.04.2023 05:06 9,4 C 8,9 C 5,6 C 87 % 1001,8 hPa 0,0 l/m 0 min 0 min 0 W/m 19,3 km/h (3 Bft) 93,22 %
24.04.2023 05:08 9,4 C 8,9 C 5,6 C 87 % 1001,8 hPa 0,0 l/m 0 min 0 min 0 W/m 22,5 km/h (4 Bft) 97,14 %
24.04.2023 05:10 9,4 C 8,9 C 5,6 C 87 % 1001,8 hPa 0,0 l/m 0 min 0 min 0 W/m 25,7 km/h (4 Bft) 95,74 %
24.04.2023 05:12 9,4 C 8,9 C 5,6 C 87 % 1001,8 hPa 0,0 l/m 0 min 0 min 0 W/m 29,0 km/h (5 Bft) 95,74 %
24.04.2023 05:14 9,4 C 8,9 C 5,6 C 87 % 1001,8 hPa 0,0 l/m 0 min 0 min 0 W/m 25,7 km/h (4 Bft) 93,62 %
24.04.2023 05:16 9,4 C 8,9 C 5,6 C 87 % 1001,9 hPa 0,0 l/m 0 min 0 min 0 W/m 29,0 km/h (5 Bft) 93,62 %
24.04.2023 05:18 9,4 C 8,9 C 5,6 C 87 % 1001,9 hPa 0,0 l/m 0 min 0 min 0 W/m 32,2 km/h (5 Bft) 93,48 %
24.04.2023 05:20 9,4 C 8,9 C 5,6 C 87 % 1001,9 hPa 0,0 l/m 0 min 0 min 0 W/m 19,3 km/h (3 Bft) 93,62 %
24.04.2023 05:22 9,4 C 8,9 C 5,6 C 87 % 1001,9 hPa 0,0 l/m 0 min 0 min 0 W/m 25,7 km/h (4 Bft) 95,74 %
24.04.2023 05:24 9,4 C 8,9 C 5,6 C 87 % 1001,9 hPa 0,0 l/m 0 min 0 min 0 W/m 19,3 km/h (3 Bft) 93,62 %
24.04.2023 05:26 9,4 C 8,9 C 5,6 C 87 % 1001,9 hPa 0,0 l/m 0 min 0 min 0 W/m 25,7 km/h (4 Bft) 95,74 %
24.04.2023 05:28 9,4 C 8,9 C 5,6 C 87 % 1001,9 hPa 0,0 l/m 0 min 0 min 0 W/m 22,5 km/h (4 Bft) 95,74 %
24.04.2023 05:30 9,4 C 8,9 C 5,6 C 87 % 1001,9 hPa 0,0 l/m 0 min 0 min 0 W/m 38,6 km/h (5 Bft) 95,74 %
24.04.2023 05:32 9,4 C 8,9 C 5,6 C 86 % 1001,9 hPa 0,0 l/m 0 min 0 min 0 W/m 25,7 km/h (4 Bft) 95,65 %
24.04.2023 05:34 9,4 C 8,9 C 5,6 C 86 % 1001,9 hPa 0,0 l/m 0 min 0 min 0 W/m 22,5 km/h (4 Bft) 100,00 %
24.04.2023 05:36 9,4 C 8,9 C 5,6 C 86 % 1001,9 hPa 0,0 l/m 0 min 0 min 0 W/m 19,3 km/h (3 Bft) 97,87 %
24.04.2023 05:38 9,4 C 8,9 C 5,6 C 86 % 1001,9 hPa 0,0 l/m 0 min 0 min 0 W/m 22,5 km/h (4 Bft) 95,74 %
24.04.2023 05:40 9,4 C 8,9 C 5,6 C 86 % 1001,9 hPa 0,0 l/m 0 min 0 min 0 W/m 12,9 km/h (3 Bft) 97,87 %
24.04.2023 05:42 9,5 C 8,9 C 5,6 C 86 % 1001,9 hPa 0,0 l/m 0 min 0 min 0 W/m 16,1 km/h (3 Bft) 97,87 %
24.04.2023 05:44 9,4 C 8,9 C 5,6 C 86 % 1002,0 hPa 0,0 l/m 0 min 0 min 0 W/m 25,7 km/h (4 Bft) 100,00 %
24.04.2023 05:46 9,4 C 8,9 C 5,6 C 86 % 1001,9 hPa 0,0 l/m 0 min 0 min 0 W/m 22,5 km/h (4 Bft) 97,83 %
24.04.2023 05:48 9,4 C 8,9 C 5,6 C 86 % 1001,9 hPa 0,0 l/m 0 min 0 min 0 W/m 25,7 km/h (4 Bft) 97,87 %
24.04.2023 05:50 9,4 C 8,9 C 5,6 C 86 % 1001,9 hPa 0,0 l/m 0 min 0 min 0 W/m 29,0 km/h (5 Bft) 97,87 %
24.04.2023 05:52 9,4 C 8,9 C 5,6 C 86 % 1001,9 hPa 0,0 l/m 0 min 0 min 0 W/m 19,3 km/h (3 Bft) 97,87 %
24.04.2023 05:54 9,4 C 8,9 C 5,6 C 86 % 1001,9 hPa 0,0 l/m 0 min 0 min 0 W/m 19,3 km/h (3 Bft) 97,87 %
24.04.2023 05:56 9,4 C 8,9 C 5,6 C 86 % 1001,9 hPa 0,0 l/m 0 min 0 min 0 W/m 25,7 km/h (4 Bft) 100,00 %
24.04.2023 05:58 9,4 C 8,9 C 5,6 C 86 % 1001,9 hPa 0,0 l/m 0 min 0 min 0 W/m 22,5 km/h (4 Bft) 100,00 %
24.04.2023 06:00 9,4 C 8,9 C 5,6 C 86 % 1001,9 hPa 0,0 l/m 0 min 0 min 0 W/m 22,5 km/h (4 Bft) 100,00 %
24.04.2023 06:02 9,4 C 8,9 C 5,6 C 86 % 1001,9 hPa 0,0 l/m 0 min 0 min 0 W/m 22,5 km/h (4 Bft) 95,74 %
24.04.2023 06:04 9,4 C 8,9 C 5,6 C 86 % 1001,9 hPa 0,0 l/m 0 min 0 min 0 W/m 25,7 km/h (4 Bft) 100,00 %
24.04.2023 06:07 9,4 C 8,9 C 5,6 C 86 % 1001,9 hPa 0,0 l/m 0 min 0 min 0 W/m 32,2 km/h (5 Bft) 100,00 %
24.04.2023 06:08 9,4 C 8,9 C 5,6 C 86 % 1001,9 hPa 0,0 l/m 0 min 0 min 0 W/m 25,7 km/h (4 Bft) 100,00 %
24.04.2023 06:12 9,4 C 8,9 C 5,6 C 86 % 1002,0 hPa 0,0 l/m 0 min 0 min 0 W/m 22,5 km/h (4 Bft) 100,00 %
24.04.2023 06:14 9,4 C 8,9 C 5,6 C 86 % 1002,0 hPa 0,0 l/m 0 min 0 min 0 W/m 22,5 km/h (4 Bft) 100,00 %
24.04.2023 06:16 9,4 C 8,9 C 5,6 C 86 % 1002,0 hPa 0,0 l/m 0 min 0 min 0 W/m 22,5 km/h (4 Bft) 97,87 %
24.04.2023 06:18 9,4 C 8,9 C 5,6 C 86 % 1002,0 hPa 0,0 l/m 0 min 0 min 0 W/m 29,0 km/h (5 Bft) 97,87 %
24.04.2023 06:20 9,4 C 8,9 C 5,6 C 86 % 1002,0 hPa 0,0 l/m 0 min 0 min 0 W/m 32,2 km/h (5 Bft) 100,00 %
24.04.2023 06:22 9,4 C 8,9 C 5,6 C 86 % 1002,0 hPa 0,0 l/m 0 min 0 min 0 W/m 22,5 km/h (4 Bft) 100,00 %
24.04.2023 06:24 9,4 C 8,9 C 5,6 C 86 % 1002,0 hPa 0,0 l/m 0 min 0 min 0 W/m 38,6 km/h (5 Bft) 100,00 %
24.04.2023 06:26 9,4 C 8,9 C 5,6 C 86 % 1002,0 hPa 0,0 l/m 0 min 0 min 0 W/m 25,7 km/h (4 Bft) 100,00 %
24.04.2023 06:28 9,4 C 8,9 C 5,6 C 85 % 1002,0 hPa 0,0 l/m 0 min 0 min 0 W/m 25,7 km/h (4 Bft) 100,00 %
24.04.2023 06:30 9,3 C 8,9 C 5,6 C 85 % 1002,0 hPa 0,0 l/m 0 min 0 min 0 W/m 25,7 km/h (4 Bft) 100,00 %
24.04.2023 06:32 9,3 C 8,9 C 5,6 C 85 % 1002,0 hPa 0,0 l/m 0 min 0 min 0 W/m 22,5 km/h (4 Bft) 100,00 %
24.04.2023 06:34 9,3 C 8,9 C 5,6 C 85 % 1002,0 hPa 0,0 l/m 0 min 0 min 0 W/m 22,5 km/h (4 Bft) 100,00 %
24.04.2023 06:36 9,3 C 8,9 C 5,6 C 85 % 1002,0 hPa 0,0 l/m 0 min 0 min 0 W/m 16,1 km/h (3 Bft) 100,00 %
24.04.2023 06:38 9,3 C 8,3 C 5,0 C 85 % 1002,1 hPa 0,0 l/m 0 min 0 min 0 W/m 38,6 km/h (5 Bft) 100,00 %
24.04.2023 06:40 9,3 C 8,3 C 5,0 C 85 % 1002,0 hPa 0,0 l/m 0 min 0 min 0 W/m 25,7 km/h (4 Bft) 100,00 %
24.04.2023 06:42 9,3 C 8,3 C 5,0 C 85 % 1002,1 hPa 0,0 l/m 0 min 2 min 0 W/m 35,4 km/h (5 Bft) 97,87 %
24.04.2023 06:44 9,3 C 8,3 C 5,0 C 86 % 1002,1 hPa 0,0 l/m 0 min 0 min 0 W/m 25,7 km/h (4 Bft) 100,00 %
24.04.2023 06:46 9,3 C 8,3 C 5,0 C 86 % 1002,1 hPa 0,0 l/m 0 min 0 min 0 W/m 22,5 km/h (4 Bft) 97,87 %
24.04.2023 06:48 9,2 C 8,3 C 5,0 C 86 % 1002,2 hPa 0,0 l/m 0 min 0 min 0 W/m 38,6 km/h (5 Bft) 97,87 %
24.04.2023 06:50 9,2 C 7,8 C 5,0 C 87 % 1002,2 hPa 0,0 l/m 0 min 2 min 0 W/m 41,8 km/h (6 Bft) 100,00 %
24.04.2023 06:52 9,1 C 7,8 C 5,0 C 87 % 1002,2 hPa 0,0 l/m 0 min 2 min 0 W/m 35,4 km/h (5 Bft) 100,00 %
24.04.2023 06:54 9,1 C 7,8 C 4,4 C 88 % 1002,2 hPa 0,0 l/m 0 min 2 min 0 W/m 25,7 km/h (4 Bft) 100,00 %
24.04.2023 06:56 9,1 C 7,8 C 4,4 C 88 % 1002,2 hPa 0,0 l/m 0 min 0 min 0 W/m 16,1 km/h (3 Bft) 100,00 %
24.04.2023 06:58 9,0 C 7,8 C 4,4 C 89 % 1002,2 hPa 0,0 l/m 0 min 2 min 0 W/m 16,1 km/h (3 Bft) 97,87 %
24.04.2023 07:00 8,9 C 7,8 C 4,4 C 89 % 1002,3 hPa 0,0 l/m 0 min 2 min 0 W/m 16,1 km/h (3 Bft) 93,62 %
24.04.2023 07:02 8,9 C 7,8 C 4,4 C 89 % 1002,3 hPa 0,0 l/m 0 min 2 min 0 W/m 25,7 km/h (4 Bft) 91,30 %
24.04.2023 07:04 8,8 C 7,8 C 4,4 C 89 % 1002,3 hPa 0,0 l/m 0 min 2 min 0 W/m 19,3 km/h (3 Bft) 95,74 %
24.04.2023 07:06 8,8 C 7,8 C 4,4 C 90 % 1002,3 hPa 0,0 l/m 0 min 2 min 0 W/m 19,3 km/h (3 Bft) 94,92 %
24.04.2023 07:08 8,8 C 7,8 C 4,4 C 90 % 1002,3 hPa 0,0 l/m 0 min 2 min 0 W/m 19,3 km/h (3 Bft) 97,14 %
24.04.2023 07:10 8,8 C 7,8 C 4,4 C 90 % 1002,3 hPa 0,0 l/m 0 min 0 min 1 W/m 19,3 km/h (3 Bft) 95,74 %
24.04.2023 07:12 8,7 C 7,8 C 4,4 C 90 % 1002,2 hPa 0,0 l/m 0 min 0 min 5 W/m 25,7 km/h (4 Bft) 95,74 %
24.04.2023 07:14 8,7 C 7,8 C 4,4 C 90 % 1002,3 hPa 0,0 l/m 0 min 2 min 8 W/m 32,2 km/h (5 Bft) 93,62 %
24.04.2023 07:16 8,7 C 7,8 C 4,4 C 90 % 1002,2 hPa 0,0 l/m 0 min 2 min 16 W/m 29,0 km/h (5 Bft) 95,65 %
24.04.2023 07:18 8,7 C 7,8 C 4,4 C 90 % 1002,2 hPa 0,0 l/m 0 min 2 min 23 W/m 29,0 km/h (5 Bft) 91,49 %
24.04.2023 07:20 8,7 C 7,8 C 4,4 C 90 % 1002,2 hPa 0,0 l/m 0 min 2 min 20 W/m 29,0 km/h (5 Bft) 95,74 %
24.04.2023 07:22 8,7 C 7,8 C 3,9 C 90 % 1002,3 hPa 0,0 l/m 0 min 2 min 24 W/m 25,7 km/h (4 Bft) 95,74 %
24.04.2023 07:24 8,6 C 7,8 C 3,9 C 91 % 1002,3 hPa 0,0 l/m 0 min 0 min 16 W/m 35,4 km/h (5 Bft) 93,62 %
24.04.2023 07:26 8,6 C 7,8 C 3,9 C 91 % 1002,3 hPa 0,2 l/m 0 min 0 min 10 W/m 22,5 km/h (4 Bft) 95,74 %
24.04.2023 07:28 8,6 C 7,8 C 3,9 C 91 % 1002,3 hPa 0,0 l/m 0 min 0 min 11 W/m 32,2 km/h (5 Bft) 95,74 %
24.04.2023 07:30 8,6 C 7,8 C 3,9 C 91 % 1002,3 hPa 0,0 l/m 0 min 0 min 12 W/m 22,5 km/h (4 Bft) 95,65 %
24.04.2023 07:32 8,6 C 7,8 C 3,9 C 91 % 1002,3 hPa 0,0 l/m 0 min 0 min 16 W/m 12,9 km/h (3 Bft) 91,49 %
24.04.2023 07:34 8,6 C 7,8 C 3,9 C 91 % 1002,3 hPa 0,0 l/m 0 min 0 min 24 W/m 25,7 km/h (4 Bft) 95,74 %
24.04.2023 07:36 8,6 C 7,8 C 3,9 C 91 % 1002,3 hPa 0,0 l/m 0 min 0 min 23 W/m 32,2 km/h (5 Bft) 97,87 %
24.04.2023 07:38 8,6 C 7,8 C 4,4 C 91 % 1002,4 hPa 0,0 l/m 0 min 0 min 23 W/m 32,2 km/h (5 Bft) 95,74 %
24.04.2023 07:40 8,6 C 7,8 C 4,4 C 91 % 1002,3 hPa 0,0 l/m 0 min 0 min 29 W/m 22,5 km/h (4 Bft) 95,74 %
24.04.2023 07:42 8,6 C 7,8 C 4,4 C 91 % 1002,3 hPa 0,0 l/m 0 min 0 min 33 W/m 22,5 km/h (4 Bft) 95,74 %
24.04.2023 07:44 8,6 C 7,8 C 4,4 C 91 % 1002,4 hPa 0,0 l/m 0 min 0 min 41 W/m 32,2 km/h (5 Bft) 95,74 %
24.04.2023 07:46 8,6 C 7,8 C 4,4 C 91 % 1002,4 hPa 0,0 l/m 0 min 0 min 63 W/m 29,0 km/h (5 Bft) 95,65 %
24.04.2023 07:48 8,6 C 8,3 C 4,4 C 91 % 1002,4 hPa 0,0 l/m 0 min 2 min 74 W/m 32,2 km/h (5 Bft) 93,62 %
24.04.2023 07:50 8,7 C 7,8 C 4,4 C 91 % 1002,4 hPa 0,0 l/m 0 min 2 min 74 W/m 38,6 km/h (5 Bft) 95,74 %
24.04.2023 07:52 8,7 C 7,8 C 4,4 C 91 % 1002,4 hPa 0,0 l/m 0 min 2 min 70 W/m 29,0 km/h (5 Bft) 95,74 %
24.04.2023 07:54 8,7 C 7,8 C 4,4 C 91 % 1002,4 hPa 0,0 l/m 0 min 2 min 52 W/m 29,0 km/h (5 Bft) 97,87 %
24.04.2023 07:56 8,7 C 7,8 C 3,9 C 91 % 1002,4 hPa 0,0 l/m 0 min 2 min 48 W/m 25,7 km/h (4 Bft) 97,87 %
24.04.2023 07:58 8,7 C 7,8 C 3,9 C 91 % 1002,4 hPa 0,0 l/m 0 min 2 min 45 W/m 25,7 km/h (4 Bft) 97,83 %
24.04.2023 08:00 8,7 C 7,8 C 3,9 C 91 % 1002,3 hPa 0,0 l/m 0 min 2 min 43 W/m 32,2 km/h (5 Bft) 95,74 %
24.04.2023 08:02 8,6 C 7,8 C 3,9 C 91 % 1002,3 hPa 0,0 l/m 0 min 2 min 50 W/m 35,4 km/h (5 Bft) 93,62 %
24.04.2023 08:04 8,6 C 7,8 C 3,9 C 91 % 1002,4 hPa 0,0 l/m 0 min 2 min 54 W/m 38,6 km/h (5 Bft) 93,62 %
24.04.2023 08:06 8,6 C 7,8 C 3,9 C 91 % 1002,3 hPa 0,0 l/m 0 min 2 min 50 W/m 16,1 km/h (3 Bft) 96,61 %
24.04.2023 08:08 8,6 C 7,8 C 3,9 C 91 % 1002,3 hPa 0,0 l/m 0 min 2 min 57 W/m 38,6 km/h (5 Bft) 97,14 %
24.04.2023 08:10 8,6 C 7,8 C 3,9 C 91 % 1002,4 hPa 0,2 l/m 0 min 2 min 76 W/m 41,8 km/h (6 Bft) 93,62 %
24.04.2023 08:12 8,6 C 7,8 C 3,9 C 92 % 1002,4 hPa 0,0 l/m 0 min 2 min 66 W/m 35,4 km/h (5 Bft) 95,74 %
24.04.2023 08:14 8,6 C 7,8 C 3,9 C 92 % 1002,4 hPa 0,0 l/m 0 min 2 min 42 W/m 29,0 km/h (5 Bft) 97,83 %
24.04.2023 08:16 8,6 C 7,8 C 3,9 C 92 % 1002,5 hPa 0,0 l/m 0 min 2 min 31 W/m 38,6 km/h (5 Bft) 97,87 %
24.04.2023 08:18 8,6 C 7,2 C 3,9 C 92 % 1002,4 hPa 0,0 l/m 0 min 2 min 27 W/m 29,0 km/h (5 Bft) 95,74 %
24.04.2023 08:20 8,6 C 7,2 C 3,9 C 92 % 1002,5 hPa 0,2 l/m 0 min 2 min 28 W/m 29,0 km/h (5 Bft) 97,87 %
24.04.2023 08:22 8,6 C 7,2 C 3,9 C 92 % 1002,4 hPa 0,0 l/m 0 min 2 min 28 W/m 29,0 km/h (5 Bft) 97,87 %
24.04.2023 08:24 8,6 C 7,2 C 3,9 C 92 % 1002,4 hPa 0,0 l/m 0 min 2 min 30 W/m 29,0 km/h (5 Bft) 97,87 %
24.04.2023 08:26 8,6 C 7,2 C 3,9 C 92 % 1002,5 hPa 0,0 l/m 0 min 2 min 33 W/m 29,0 km/h (5 Bft) 100,00 %
24.04.2023 08:28 8,5 C 7,2 C 3,9 C 92 % 1002,5 hPa 0,2 l/m 0 min 2 min 33 W/m 51,5 km/h (7 Bft) 100,00 %
24.04.2023 08:30 8,5 C 7,2 C 3,9 C 92 % 1002,6 hPa 0,0 l/m 0 min 2 min 42 W/m 41,8 km/h (6 Bft) 100,00 %
24.04.2023 08:32 8,4 C 7,2 C 3,9 C 92 % 1002,5 hPa 0,0 l/m 0 min 2 min 47 W/m 32,2 km/h (5 Bft) 100,00 %
24.04.2023 08:34 8,4 C 7,2 C 3,9 C 93 % 1002,5 hPa 0,0 l/m 0 min 2 min 52 W/m 29,0 km/h (5 Bft) 100,00 %
24.04.2023 08:36 8,4 C 7,2 C 3,9 C 93 % 1002,5 hPa 0,0 l/m 0 min 2 min 51 W/m 32,2 km/h (5 Bft) 100,00 %
24.04.2023 08:38 8,4 C 7,2 C 3,9 C 93 % 1002,5 hPa 0,0 l/m 0 min 2 min 60 W/m 19,3 km/h (3 Bft) 100,00 %
24.04.2023 08:40 8,4 C 7,2 C 3,9 C 93 % 1002,5 hPa 0,2 l/m 0 min 2 min 78 W/m 29,0 km/h (5 Bft) 100,00 %
24.04.2023 08:42 8,4 C 7,2 C 3,9 C 93 % 1002,5 hPa 0,0 l/m 0 min 2 min 96 W/m 35,4 km/h (5 Bft) 97,83 %
24.04.2023 08:44 8,4 C 7,2 C 3,9 C 93 % 1002,5 hPa 0,0 l/m 0 min 2 min 112 W/m 25,7 km/h (4 Bft) 100,00 %
24.04.2023 08:46 8,4 C 7,2 C 3,9 C 93 % 1002,5 hPa 0,0 l/m 0 min 2 min 121 W/m 22,5 km/h (4 Bft) 97,87 %
24.04.2023 08:48 8,4 C 7,2 C 3,9 C 94 % 1002,6 hPa 0,0 l/m 0 min 2 min 114 W/m 19,3 km/h (3 Bft) 97,87 %
24.04.2023 08:50 8,4 C 7,2 C 3,9 C 94 % 1002,6 hPa 0,0 l/m 0 min 2 min 115 W/m 25,7 km/h (4 Bft) 97,87 %
24.04.2023 08:52 8,4 C 7,2 C 3,9 C 94 % 1002,6 hPa 0,2 l/m 0 min 2 min 118 W/m 25,7 km/h (4 Bft) 97,87 %
24.04.2023 08:54 8,4 C 7,2 C 3,9 C 94 % 1002,6 hPa 0,0 l/m 0 min 2 min 115 W/m 32,2 km/h (5 Bft) 97,87 %
24.04.2023 08:56 8,4 C 7,2 C 3,9 C 94 % 1002,6 hPa 0,0 l/m 0 min 2 min 88 W/m 19,3 km/h (3 Bft) 97,83 %
24.04.2023 08:58 8,4 C 7,2 C 3,9 C 94 % 1002,6 hPa 0,0 l/m 0 min 2 min 92 W/m 19,3 km/h (3 Bft) 97,87 %
24.04.2023 09:00 8,4 C 7,2 C 3,9 C 94 % 1002,6 hPa 0,0 l/m 0 min 2 min 94 W/m 25,7 km/h (4 Bft) 97,87 %
24.04.2023 09:02 8,4 C 7,2 C 3,9 C 94 % 1002,6 hPa 0,0 l/m 0 min 2 min 93 W/m 19,3 km/h (3 Bft) 57,45 %
24.04.2023 09:04 8,3 C 7,2 C 3,9 C 94 % 1002,6 hPa 0,0 l/m 0 min 2 min 79 W/m 22,5 km/h (4 Bft) 97,87 %
24.04.2023 09:06 8,3 C 7,2 C 3,9 C 94 % 1002,7 hPa 0,0 l/m 0 min 2 min 59 W/m 22,5 km/h (4 Bft) 98,28 %
24.04.2023 09:08 8,3 C 7,2 C 3,3 C 94 % 1002,6 hPa 0,0 l/m 0 min 2 min 39 W/m 25,7 km/h (4 Bft) 94,44 %
24.04.2023 09:10 8,2 C 6,7 C 3,3 C 93 % 1002,8 hPa 0,0 l/m 0 min 2 min 34 W/m 35,4 km/h (5 Bft) 97,83 %
24.04.2023 09:12 8,1 C 6,7 C 3,3 C 93 % 1002,8 hPa 0,0 l/m 0 min 2 min 38 W/m 25,7 km/h (4 Bft) 97,87 %
24.04.2023 09:14 8,1 C 6,7 C 3,3 C 93 % 1002,8 hPa 0,2 l/m 0 min 2 min 56 W/m 35,4 km/h (5 Bft) 97,87 %
24.04.2023 09:16 7,9 C 6,7 C 3,3 C 93 % 1002,8 hPa 0,0 l/m 0 min 2 min 61 W/m 19,3 km/h (3 Bft) 95,74 %
24.04.2023 09:18 7,9 C 6,7 C 3,3 C 93 % 1002,8 hPa 0,0 l/m 0 min 2 min 59 W/m 41,8 km/h (6 Bft) 97,87 %
24.04.2023 09:20 7,8 C 6,7 C 3,3 C 93 % 1002,7 hPa 0,0 l/m 0 min 2 min 56 W/m 32,2 km/h (5 Bft) 97,87 %
24.04.2023 09:22 7,8 C 6,7 C 3,3 C 93 % 1002,8 hPa 0,0 l/m 0 min 2 min 51 W/m 19,3 km/h (3 Bft) 100,00 %
24.04.2023 09:24 7,7 C 6,7 C 3,3 C 93 % 1002,8 hPa 0,2 l/m 0 min 2 min 42 W/m 25,7 km/h (4 Bft) 100,00 %
24.04.2023 09:26 7,7 C 6,7 C 3,3 C 93 % 1002,7 hPa 0,0 l/m 0 min 2 min 38 W/m 29,0 km/h (5 Bft) 100,00 %
24.04.2023 09:28 7,6 C 6,7 C 3,3 C 93 % 1002,7 hPa 0,0 l/m 0 min 2 min 35 W/m 16,1 km/h (3 Bft) 97,87 %
24.04.2023 09:30 7,6 C 6,1 C 2,8 C 93 % 1002,7 hPa 0,0 l/m 0 min 2 min 33 W/m 35,4 km/h (5 Bft) 100,00 %
24.04.2023 09:32 7,4 C 6,1 C 2,8 C 93 % 1002,7 hPa 0,0 l/m 0 min 2 min 33 W/m 35,4 km/h (5 Bft) 100,00 %
24.04.2023 09:34 7,4 C 6,1 C 2,8 C 93 % 1002,7 hPa 0,2 l/m 0 min 2 min 32 W/m 29,0 km/h (5 Bft) 100,00 %
24.04.2023 09:36 7,3 C 6,1 C 2,8 C 93 % 1002,7 hPa 0,0 l/m 0 min 2 min 32 W/m 25,7 km/h (4 Bft) 100,00 %
24.04.2023 09:38 7,3 C 6,1 C 2,8 C 93 % 1002,7 hPa 0,0 l/m 0 min 2 min 35 W/m 32,2 km/h (5 Bft) 100,00 %
24.04.2023 09:40 7,3 C 6,1 C 2,8 C 93 % 1002,7 hPa 0,0 l/m 0 min 2 min 39 W/m 29,0 km/h (5 Bft) 100,00 %
24.04.2023 09:42 7,3 C 6,1 C 2,8 C 93 % 1002,7 hPa 0,0 l/m 0 min 2 min 34 W/m 29,0 km/h (5 Bft) 97,87 %
24.04.2023 09:44 7,3 C 6,1 C 2,8 C 94 % 1002,8 hPa 0,2 l/m 0 min 2 min 39 W/m 19,3 km/h (3 Bft) 97,87 %
24.04.2023 09:46 7,3 C 6,1 C 2,8 C 94 % 1002,8 hPa 0,0 l/m 0 min 0 min 49 W/m 38,6 km/h (5 Bft) 100,00 %
24.04.2023 09:48 7,3 C 6,1 C 2,8 C 94 % 1002,8 hPa 0,0 l/m 0 min 2 min 58 W/m 22,5 km/h (4 Bft) 100,00 %
24.04.2023 09:50 7,3 C 6,1 C 3,3 C 94 % 1002,9 hPa 0,0 l/m 0 min 2 min 60 W/m 12,9 km/h (3 Bft) 100,00 %
24.04.2023 09:52 7,4 C 6,7 C 3,3 C 94 % 1002,9 hPa 0,0 l/m 0 min 2 min 77 W/m 19,3 km/h (3 Bft) 100,00 %
24.04.2023 09:54 7,4 C 6,7 C 3,3 C 94 % 1002,9 hPa 0,0 l/m 0 min 2 min 61 W/m 22,5 km/h (4 Bft) 100,00 %
24.04.2023 09:56 7,4 C 6,7 C 3,3 C 94 % 1003,0 hPa 0,2 l/m 0 min 2 min 43 W/m 12,9 km/h (3 Bft) 100,00 %
24.04.2023 09:58 7,5 C 6,7 C 3,3 C 94 % 1003,1 hPa 0,0 l/m 0 min 2 min 31 W/m 22,5 km/h (4 Bft) 100,00 %
24.04.2023 10:00 7,5 C 6,7 C 3,3 C 94 % 1003,3 hPa 0,0 l/m 0 min 2 min 46 W/m 16,1 km/h (3 Bft) 97,87 %
24.04.2023 10:02 7,5 C 6,7 C 3,3 C 95 % 1003,3 hPa 0,0 l/m 0 min 2 min 75 W/m 12,9 km/h (3 Bft) 100,00 %
24.04.2023 10:04 7,6 C 6,7 C 3,3 C 95 % 1003,3 hPa 0,2 l/m 0 min 2 min 83 W/m 12,9 km/h (3 Bft) 95,65 %
24.04.2023 10:06 7,6 C 6,7 C 3,3 C 95 % 1003,3 hPa 0,0 l/m 0 min 2 min 87 W/m 9,7 km/h (2 Bft) 89,58 %
24.04.2023 10:08 7,6 C 6,7 C 3,3 C 95 % 1003,4 hPa 0,0 l/m 0 min 2 min 81 W/m 12,9 km/h (3 Bft) 97,83 %
24.04.2023 10:10 7,6 C 6,7 C 3,3 C 95 % 1003,4 hPa 0,0 l/m 0 min 2 min 83 W/m 12,9 km/h (3 Bft) 97,87 %
24.04.2023 10:12 7,6 C 6,7 C 3,3 C 95 % 1003,4 hPa 0,2 l/m 0 min 2 min 93 W/m 9,7 km/h (2 Bft) 97,87 %
24.04.2023 10:14 7,7 C 6,7 C 3,3 C 95 % 1003,4 hPa 0,0 l/m 0 min 2 min 104 W/m 12,9 km/h (3 Bft) 95,74 %
24.04.2023 10:16 7,7 C 6,7 C 3,3 C 95 % 1003,5 hPa 0,0 l/m 0 min 2 min 121 W/m 12,9 km/h (3 Bft) 97,87 %
24.04.2023 10:18 7,7 C 6,7 C 3,9 C 95 % 1003,5 hPa 0,2 l/m 0 min 2 min 125 W/m 16,1 km/h (3 Bft) 95,65 %
24.04.2023 10:20 7,7 C 7,2 C 3,9 C 95 % 1003,5 hPa 0,0 l/m 0 min 2 min 122 W/m 12,9 km/h (3 Bft) 95,74 %
24.04.2023 10:22 7,8 C 7,2 C 3,9 C 96 % 1003,5 hPa 0,2 l/m 0 min 2 min 125 W/m 16,1 km/h (3 Bft) 97,87 %
24.04.2023 10:24 7,8 C 7,2 C 3,9 C 96 % 1003,6 hPa 0,0 l/m 0 min 2 min 130 W/m 12,9 km/h (3 Bft) 41,67 %
24.04.2023 10:26 7,8 C 7,2 C 3,9 C 96 % 1003,7 hPa 0,2 l/m 0 min 2 min 111 W/m 12,9 km/h (3 Bft) 94,74 %
24.04.2023 10:28 7,8 C 7,2 C 3,9 C 96 % 1003,7 hPa 0,0 l/m 0 min 2 min 83 W/m 12,9 km/h (3 Bft) 95,74 %
24.04.2023 10:30 7,9 C 7,2 C 3,9 C 96 % 1003,7 hPa 0,0 l/m 0 min 2 min 65 W/m 12,9 km/h (3 Bft) 95,65 %
24.04.2023 10:32 7,9 C 6,7 C 3,9 C 96 % 1003,8 hPa 0,2 l/m 0 min 2 min 40 W/m 19,3 km/h (3 Bft) 95,74 %
24.04.2023 10:34 7,9 C 6,7 C 3,9 C 96 % 1003,9 hPa 0,2 l/m 0 min 2 min 32 W/m 16,1 km/h (3 Bft) 89,36 %
24.04.2023 10:36 7,9 C 6,7 C 3,9 C 96 % 1003,9 hPa 0,0 l/m 0 min 2 min 25 W/m 9,7 km/h (2 Bft) 95,74 %
24.04.2023 10:38 7,9 C 6,7 C 3,9 C 96 % 1004,0 hPa 0,2 l/m 0 min 2 min 32 W/m 19,3 km/h (3 Bft) 95,74 %
24.04.2023 10:40 7,9 C 7,2 C 3,9 C 96 % 1004,1 hPa 0,0 l/m 0 min 2 min 52 W/m 22,5 km/h (4 Bft) 91,49 %
24.04.2023 10:42 8,0 C 7,2 C 3,9 C 96 % 1004,0 hPa 0,2 l/m 0 min 2 min 78 W/m 29,0 km/h (5 Bft) 91,49 %
24.04.2023 10:44 8,0 C 7,2 C 3,9 C 96 % 1004,0 hPa 0,0 l/m 0 min 2 min 83 W/m 32,2 km/h (5 Bft) 93,48 %
24.04.2023 10:46 8,0 C 7,2 C 3,9 C 96 % 1004,2 hPa 0,2 l/m 0 min 2 min 81 W/m 35,4 km/h (5 Bft) 93,62 %
24.04.2023 10:48 8,0 C 7,2 C 3,9 C 96 % 1004,3 hPa 0,0 l/m 0 min 2 min 76 W/m 22,5 km/h (4 Bft) 93,62 %
24.04.2023 10:50 7,9 C 6,7 C 3,3 C 96 % 1004,4 hPa 0,2 l/m 0 min 2 min 71 W/m 25,7 km/h (4 Bft) 94,00 %
24.04.2023 10:52 7,9 C 6,7 C 3,3 C 96 % 1004,5 hPa 0,0 l/m 0 min 2 min 73 W/m 32,2 km/h (5 Bft) 91,67 %
24.04.2023 10:54 7,8 C 6,7 C 3,3 C 95 % 1004,5 hPa 0,2 l/m 0 min 2 min 77 W/m 25,7 km/h (4 Bft) 95,65 %
24.04.2023 10:56 7,8 C 6,7 C 3,3 C 95 % 1004,6 hPa 0,0 l/m 0 min 2 min 79 W/m 32,2 km/h (5 Bft) 95,74 %
24.04.2023 10:58 7,8 C 7,2 C 3,3 C 95 % 1004,6 hPa 0,2 l/m 0 min 2 min 78 W/m 32,2 km/h (5 Bft) 94,74 %
24.04.2023 11:00 7,8 C 7,2 C 3,3 C 95 % 1004,7 hPa 0,0 l/m 0 min 2 min 84 W/m 35,4 km/h (5 Bft) 93,62 %
24.04.2023 11:02 7,9 C 7,2 C 3,3 C 95 % 1004,8 hPa 0,2 l/m 0 min 2 min 88 W/m 19,3 km/h (3 Bft) 95,74 %
24.04.2023 11:04 7,9 C 7,2 C 3,9 C 95 % 1004,8 hPa 0,0 l/m 0 min 2 min 95 W/m 19,3 km/h (3 Bft) 93,62 %
24.04.2023 11:06 7,9 C 7,2 C 3,9 C 95 % 1004,9 hPa 0,2 l/m 0 min 2 min 83 W/m 22,5 km/h (4 Bft) 95,74 %
24.04.2023 11:08 8,0 C 7,2 C 3,9 C 95 % 1005,0 hPa 0,0 l/m 0 min 2 min 76 W/m 22,5 km/h (4 Bft) 95,65 %
24.04.2023 11:10 8,0 C 7,2 C 3,9 C 95 % 1005,0 hPa 0,0 l/m 0 min 2 min 79 W/m 25,7 km/h (4 Bft) 95,74 %
24.04.2023 11:12 8,1 C 7,2 C 3,9 C 95 % 1005,0 hPa 0,2 l/m 0 min 2 min 74 W/m 19,3 km/h (3 Bft) 100,00 %
24.04.2023 11:14 8,1 C 7,2 C 3,9 C 96 % 1005,1 hPa 0,0 l/m 0 min 2 min 99 W/m 19,3 km/h (3 Bft) 100,00 %
24.04.2023 11:16 8,0 C 7,2 C 3,9 C 95 % 1005,0 hPa 0,2 l/m 0 min 2 min 101 W/m 32,2 km/h (5 Bft) 97,87 %
24.04.2023 11:18 7,9 C 7,2 C 3,9 C 95 % 1005,2 hPa 0,0 l/m 0 min 2 min 103 W/m 19,3 km/h (3 Bft) 100,00 %
24.04.2023 11:20 7,9 C 7,2 C 3,9 C 95 % 1005,3 hPa 0,0 l/m 0 min 2 min 97 W/m 22,5 km/h (4 Bft) 100,00 %
24.04.2023 11:22 7,9 C 7,2 C 3,9 C 95 % 1005,4 hPa 0,0 l/m 0 min 2 min 99 W/m 22,5 km/h (4 Bft) 97,83 %
24.04.2023 11:24 7,9 C 7,2 C 3,9 C 95 % 1005,4 hPa 0,2 l/m 0 min 2 min 104 W/m 29,0 km/h (5 Bft) 100,00 %
24.04.2023 11:26 7,9 C 7,2 C 3,9 C 95 % 1005,4 hPa 0,0 l/m 0 min 2 min 114 W/m 29,0 km/h (5 Bft) 100,00 %
24.04.2023 11:28 7,9 C 7,2 C 3,9 C 95 % 1005,5 hPa 0,0 l/m 0 min 2 min 114 W/m 12,9 km/h (3 Bft) 100,00 %
24.04.2023 11:30 7,9 C 7,2 C 3,9 C 95 % 1005,5 hPa 0,2 l/m 0 min 2 min 120 W/m 19,3 km/h (3 Bft) 100,00 %
24.04.2023 11:32 8,0 C 7,2 C 3,9 C 95 % 1005,6 hPa 0,0 l/m 0 min 2 min 123 W/m 12,9 km/h (3 Bft) 97,87 %
24.04.2023 11:34 8,0 C 7,2 C 3,9 C 95 % 1005,6 hPa 0,0 l/m 0 min 2 min 136 W/m 19,3 km/h (3 Bft) 100,00 %
24.04.2023 11:36 8,1 C 7,2 C 3,9 C 95 % 1005,7 hPa 0,0 l/m 0 min 2 min 145 W/m 16,1 km/h (3 Bft) 97,83 %
24.04.2023 11:38 8,1 C 7,8 C 3,9 C 95 % 1005,7 hPa 0,2 l/m 0 min 2 min 151 W/m 25,7 km/h (4 Bft) 97,87 %
24.04.2023 11:40 8,1 C 7,8 C 3,9 C 96 % 1005,8 hPa 0,0 l/m 0 min 2 min 157 W/m 19,3 km/h (3 Bft) 100,00 %
24.04.2023 11:42 8,1 C 7,8 C 4,4 C 96 % 1005,8 hPa 0,0 l/m 0 min 2 min 164 W/m 12,9 km/h (3 Bft) 100,00 %
24.04.2023 11:44 8,2 C 7,8 C 4,4 C 96 % 1005,9 hPa 0,2 l/m 0 min 2 min 162 W/m 22,5 km/h (4 Bft) 100,00 %
24.04.2023 11:46 8,2 C 7,8 C 4,4 C 96 % 1005,9 hPa 0,0 l/m 0 min 2 min 132 W/m 16,1 km/h (3 Bft) 100,00 %
24.04.2023 11:48 8,3 C 7,8 C 4,4 C 96 % 1005,9 hPa 0,0 l/m 0 min 2 min 106 W/m 16,1 km/h (3 Bft) 100,00 %
24.04.2023 11:50 8,3 C 7,8 C 4,4 C 96 % 1006,0 hPa 0,0 l/m 0 min 2 min 89 W/m 16,1 km/h (3 Bft) 100,00 %
24.04.2023 11:52 8,3 C 7,8 C 4,4 C 96 % 1005,9 hPa 0,0 l/m 0 min 2 min 148 W/m 29,0 km/h (5 Bft) 100,00 %
24.04.2023 11:54 8,3 C 7,8 C 4,4 C 96 % 1006,0 hPa 0,2 l/m 0 min 2 min 128 W/m 9,7 km/h (2 Bft) 100,00 %
24.04.2023 11:56 8,3 C 7,8 C 4,4 C 96 % 1006,2 hPa 0,0 l/m 0 min 2 min 135 W/m 16,1 km/h (3 Bft) 100,00 %
24.04.2023 11:58 8,3 C 7,8 C 4,4 C 96 % 1006,1 hPa 0,0 l/m 0 min 2 min 121 W/m 19,3 km/h (3 Bft) 100,00 %
24.04.2023 12:00 8,3 C 7,8 C 4,4 C 96 % 1006,2 hPa 0,0 l/m 0 min 2 min 107 W/m 12,9 km/h (3 Bft) 97,87 %
24.04.2023 12:02 8,4 C 7,8 C 4,4 C 96 % 1006,2 hPa 0,2 l/m 0 min 2 min 86 W/m 12,9 km/h (3 Bft) 100,00 %
24.04.2023 12:04 8,4 C 7,8 C 4,4 C 96 % 1006,2 hPa 0,0 l/m 0 min 2 min 73 W/m 12,9 km/h (3 Bft) 100,00 %
24.04.2023 12:07 8,3 C 7,8 C 4,4 C 96 % 1006,3 hPa 0,0 l/m 0 min 3 min 84 W/m 22,5 km/h (4 Bft) 100,00 %
24.04.2023 12:08 8,3 C 7,8 C 4,4 C 96 % 1006,3 hPa 0,0 l/m 0 min 1 min 95 W/m 12,9 km/h (3 Bft) 100,00 %
24.04.2023 12:12 8,3 C 7,8 C 4,4 C 96 % 1006,4 hPa 0,0 l/m 0 min 4 min 112 W/m 19,3 km/h (3 Bft) 100,00 %
24.04.2023 12:14 8,3 C 7,8 C 4,4 C 96 % 1006,3 hPa 0,2 l/m 0 min 2 min 104 W/m 19,3 km/h (3 Bft) 100,00 %
24.04.2023 12:16 8,4 C 7,8 C 4,4 C 96 % 1006,4 hPa 0,0 l/m 0 min 2 min 103 W/m 19,3 km/h (3 Bft) 100,00 %
24.04.2023 12:18 8,4 C 7,8 C 4,4 C 96 % 1006,4 hPa 0,0 l/m 0 min 2 min 106 W/m 12,9 km/h (3 Bft) 97,87 %
24.04.2023 12:20 8,4 C 7,8 C 4,4 C 96 % 1006,5 hPa 0,0 l/m 0 min 2 min 83 W/m 19,3 km/h (3 Bft) 97,87 %
24.04.2023 12:22 8,4 C 7,8 C 4,4 C 96 % 1006,6 hPa 0,0 l/m 0 min 2 min 83 W/m 22,5 km/h (4 Bft) 100,00 %
24.04.2023 12:24 8,4 C 7,8 C 4,4 C 96 % 1006,6 hPa 0,2 l/m 0 min 2 min 66 W/m 19,3 km/h (3 Bft) 97,83 %
24.04.2023 12:26 8,4 C 7,8 C 4,4 C 96 % 1006,6 hPa 0,0 l/m 0 min 2 min 73 W/m 12,9 km/h (3 Bft) 100,00 %
24.04.2023 12:28 8,4 C 7,8 C 4,4 C 96 % 1006,7 hPa 0,0 l/m 0 min 2 min 106 W/m 16,1 km/h (3 Bft) 97,87 %
24.04.2023 12:30 8,5 C 8,3 C 4,4 C 96 % 1006,6 hPa 0,0 l/m 0 min 2 min 130 W/m 19,3 km/h (3 Bft) 100,00 %
24.04.2023 12:32 8,4 C 8,3 C 4,4 C 96 % 1006,6 hPa 0,0 l/m 0 min 2 min 125 W/m 22,5 km/h (4 Bft) 100,00 %
24.04.2023 12:34 8,4 C 7,8 C 4,4 C 96 % 1006,7 hPa 0,0 l/m 0 min 2 min 102 W/m 16,1 km/h (3 Bft) 95,74 %
24.04.2023 12:36 8,4 C 7,8 C 4,4 C 96 % 1006,7 hPa 0,0 l/m 0 min 2 min 85 W/m 16,1 km/h (3 Bft) 97,87 %
24.04.2023 12:38 8,4 C 7,8 C 4,4 C 96 % 1006,8 hPa 0,0 l/m 0 min 2 min 104 W/m 19,3 km/h (3 Bft) 97,83 %
24.04.2023 12:40 8,4 C 7,8 C 4,4 C 96 % 1006,8 hPa 0,0 l/m 0 min 2 min 116 W/m 16,1 km/h (3 Bft) 97,87 %
24.04.2023 12:42 8,4 C 8,3 C 4,4 C 96 % 1006,8 hPa 0,2 l/m 0 min 0 min 126 W/m 16,1 km/h (3 Bft) 97,87 %
24.04.2023 12:44 8,4 C 8,3 C 4,4 C 96 % 1006,8 hPa 0,0 l/m 0 min 0 min 182 W/m 12,9 km/h (3 Bft) 97,87 %
24.04.2023 12:46 8,4 C 8,9 C 4,4 C 96 % 1006,8 hPa 0,0 l/m 0 min 0 min 281 W/m 22,5 km/h (4 Bft) 97,87 %
24.04.2023 12:48 8,6 C 9,4 C 5,0 C 96 % 1006,8 hPa 0,0 l/m 0 min 0 min 336 W/m 12,9 km/h (3 Bft) 97,87 %
24.04.2023 12:50 8,7 C 9,4 C 5,0 C 96 % 1006,9 hPa 0,0 l/m 0 min 0 min 369 W/m 19,3 km/h (3 Bft) 95,74 %
24.04.2023 12:52 8,8 C 10,0 C 5,0 C 96 % 1006,9 hPa 0,0 l/m 2 min 0 min 468 W/m 16,1 km/h (3 Bft) 95,65 %
24.04.2023 12:54 8,9 C 10,0 C 5,0 C 96 % 1007,0 hPa 0,0 l/m 2 min 0 min 536 W/m 22,5 km/h (4 Bft) 100,00 %
24.04.2023 12:56 9,0 C 9,4 C 5,0 C 96 % 1007,0 hPa 0,0 l/m 0 min 0 min 285 W/m 35,4 km/h (5 Bft) 97,87 %
24.04.2023 12:58 8,9 C 8,9 C 4,4 C 95 % 1007,0 hPa 0,0 l/m 0 min 0 min 122 W/m 22,5 km/h (4 Bft) 95,74 %
24.04.2023 13:00 8,9 C 8,9 C 4,4 C 95 % 1007,0 hPa 0,0 l/m 0 min 0 min 66 W/m 19,3 km/h (3 Bft) 95,74 %
24.04.2023 13:02 8,9 C 8,3 C 4,4 C 94 % 1007,1 hPa 0,0 l/m 0 min 0 min 58 W/m 25,7 km/h (4 Bft) 91,49 %
24.04.2023 13:04 8,8 C 8,3 C 4,4 C 94 % 1007,1 hPa 0,0 l/m 0 min 0 min 60 W/m 19,3 km/h (3 Bft) 95,74 %
24.04.2023 13:06 8,8 C 8,3 C 4,4 C 94 % 1007,1 hPa 0,0 l/m 0 min 0 min 64 W/m 19,3 km/h (3 Bft) 96,55 %
24.04.2023 13:08 8,7 C 8,3 C 4,4 C 93 % 1007,1 hPa 0,0 l/m 0 min 0 min 76 W/m 16,1 km/h (3 Bft) 97,14 %
24.04.2023 13:10 8,7 C 8,3 C 4,4 C 93 % 1007,2 hPa 0,0 l/m 0 min 0 min 94 W/m 16,1 km/h (3 Bft) 95,74 %
24.04.2023 13:12 8,7 C 8,3 C 4,4 C 93 % 1007,2 hPa 0,0 l/m 0 min 0 min 123 W/m 25,7 km/h (4 Bft) 93,62 %
24.04.2023 13:14 8,7 C 8,3 C 4,4 C 93 % 1007,3 hPa 0,0 l/m 0 min 0 min 154 W/m 22,5 km/h (4 Bft) 95,74 %
24.04.2023 13:16 8,7 C 8,3 C 4,4 C 93 % 1007,3 hPa 0,0 l/m 0 min 0 min 190 W/m 16,1 km/h (3 Bft) 95,74 %
24.04.2023 13:18 8,7 C 8,9 C 4,4 C 93 % 1007,3 hPa 0,0 l/m 0 min 0 min 233 W/m 12,9 km/h (3 Bft) 93,48 %
24.04.2023 13:20 8,8 C 8,9 C 4,4 C 93 % 1007,3 hPa 0,0 l/m 0 min 0 min 254 W/m 12,9 km/h (3 Bft) 95,74 %
24.04.2023 13:22 8,9 C 9,4 C 5,0 C 93 % 1007,3 hPa 0,0 l/m 0 min 0 min 289 W/m 16,1 km/h (3 Bft) 95,74 %
24.04.2023 13:24 9,0 C 9,4 C 5,0 C 93 % 1007,4 hPa 0,0 l/m 0 min 0 min 316 W/m 19,3 km/h (3 Bft) 95,74 %
24.04.2023 13:26 9,1 C 9,4 C 5,0 C 93 % 1007,4 hPa 0,0 l/m 0 min 0 min 332 W/m 19,3 km/h (3 Bft) 95,74 %
24.04.2023 13:28 9,2 C 10,0 C 5,0 C 94 % 1007,4 hPa 0,0 l/m 2 min 0 min 420 W/m 16,1 km/h (3 Bft) 95,74 %
24.04.2023 13:30 9,3 C 10,6 C 5,6 C 93 % 1007,4 hPa 0,0 l/m 2 min 0 min 525 W/m 12,9 km/h (3 Bft) 95,74 %
24.04.2023 13:32 9,4 C 10,6 C 5,6 C 93 % 1007,5 hPa 0,0 l/m 0 min 0 min 319 W/m 12,9 km/h (3 Bft) 93,48 %
24.04.2023 13:34 9,5 C 10,0 C 5,6 C 93 % 1007,4 hPa 0,0 l/m 0 min 0 min 246 W/m 16,1 km/h (3 Bft) 95,74 %
24.04.2023 13:36 9,5 C 9,4 C 5,0 C 93 % 1007,4 hPa 0,0 l/m 0 min 0 min 190 W/m 16,1 km/h (3 Bft) 91,49 %
24.04.2023 13:38 9,4 C 9,4 C 5,0 C 92 % 1007,5 hPa 0,0 l/m 0 min 0 min 117 W/m 19,3 km/h (3 Bft) 95,74 %
24.04.2023 13:40 9,4 C 8,9 C 5,0 C 92 % 1007,5 hPa 0,0 l/m 0 min 0 min 74 W/m 12,9 km/h (3 Bft) 95,74 %
24.04.2023 13:42 9,4 C 8,9 C 5,0 C 92 % 1007,6 hPa 0,0 l/m 0 min 0 min 72 W/m 16,1 km/h (3 Bft) 95,74 %
24.04.2023 13:44 9,3 C 8,9 C 4,4 C 91 % 1007,5 hPa 0,0 l/m 0 min 0 min 74 W/m 19,3 km/h (3 Bft) 95,74 %
24.04.2023 13:46 9,2 C 8,9 C 4,4 C 91 % 1007,6 hPa 0,0 l/m 0 min 0 min 71 W/m 19,3 km/h (3 Bft) 95,65 %
24.04.2023 13:48 9,1 C 8,3 C 3,9 C 90 % 1007,7 hPa 0,2 l/m 0 min 0 min 79 W/m 32,2 km/h (5 Bft) 93,62 %
24.04.2023 13:50 9,1 C 8,3 C 3,9 C 89 % 1007,8 hPa 0,0 l/m 0 min 0 min 107 W/m 29,0 km/h (5 Bft) 95,74 %
24.04.2023 13:52 9,1 C 8,9 C 3,9 C 89 % 1007,8 hPa 0,0 l/m 0 min 0 min 148 W/m 19,3 km/h (3 Bft) 97,87 %
24.04.2023 13:54 9,1 C 8,9 C 4,4 C 89 % 1007,8 hPa 0,0 l/m 0 min 0 min 193 W/m 12,9 km/h (3 Bft) 97,87 %
24.04.2023 13:56 9,1 C 9,4 C 4,4 C 89 % 1007,8 hPa 0,0 l/m 0 min 0 min 225 W/m 19,3 km/h (3 Bft) 95,74 %
24.04.2023 13:58 9,2 C 9,4 C 4,4 C 90 % 1007,9 hPa 0,0 l/m 0 min 0 min 261 W/m 29,0 km/h (5 Bft) 97,87 %
24.04.2023 14:00 9,3 C 9,4 C 4,4 C 89 % 1007,9 hPa 0,0 l/m 0 min 0 min 283 W/m 19,3 km/h (3 Bft) 95,65 %
24.04.2023 14:02 9,3 C 10,0 C 4,4 C 89 % 1008,0 hPa 0,0 l/m 0 min 0 min 287 W/m 22,5 km/h (4 Bft) 97,87 %
24.04.2023 14:04 9,4 C 10,0 C 4,4 C 88 % 1008,0 hPa 0,0 l/m 0 min 0 min 284 W/m 29,0 km/h (5 Bft) 97,92 %
24.04.2023 14:06 9,5 C 10,0 C 4,4 C 88 % 1008,0 hPa 0,0 l/m 0 min 0 min 286 W/m 22,5 km/h (4 Bft) 98,31 %
24.04.2023 14:08 9,6 C 10,0 C 4,4 C 88 % 1008,1 hPa 0,0 l/m 0 min 0 min 282 W/m 16,1 km/h (3 Bft) 100,00 %
24.04.2023 14:10 9,6 C 10,0 C 4,4 C 88 % 1008,1 hPa 0,0 l/m 0 min 0 min 280 W/m 29,0 km/h (5 Bft) 100,00 %
24.04.2023 14:12 9,7 C 10,0 C 4,4 C 86 % 1008,0 hPa 0,0 l/m 0 min 0 min 280 W/m 29,0 km/h (5 Bft) 100,00 %
24.04.2023 14:14 9,7 C 10,0 C 4,4 C 85 % 1008,0 hPa 0,0 l/m 0 min 0 min 276 W/m 22,5 km/h (4 Bft) 97,87 %
24.04.2023 14:16 9,7 C 10,0 C 4,4 C 85 % 1008,0 hPa 0,0 l/m 0 min 0 min 298 W/m 22,5 km/h (4 Bft) 100,00 %
24.04.2023 14:18 9,7 C 10,0 C 4,4 C 85 % 1008,1 hPa 0,0 l/m 0 min 0 min 305 W/m 16,1 km/h (3 Bft) 100,00 %
24.04.2023 14:20 9,8 C 10,6 C 5,0 C 85 % 1008,1 hPa 0,0 l/m 0 min 0 min 322 W/m 19,3 km/h (3 Bft) 97,87 %
24.04.2023 14:22 9,9 C 10,6 C 5,0 C 85 % 1008,1 hPa 0,0 l/m 2 min 0 min 377 W/m 16,1 km/h (3 Bft) 100,00 %
24.04.2023 14:24 10,1 C 12,2 C 5,6 C 84 % 1008,1 hPa 0,0 l/m 2 min 0 min 505 W/m 19,3 km/h (3 Bft) 97,87 %
24.04.2023 14:26 10,2 C 12,8 C 6,7 C 84 % 1008,1 hPa 0,0 l/m 2 min 0 min 579 W/m 35,4 km/h (5 Bft) 100,00 %
24.04.2023 14:28 10,4 C 12,2 C 6,7 C 83 % 1008,1 hPa 0,0 l/m 2 min 0 min 554 W/m 22,5 km/h (4 Bft) 100,00 %
24.04.2023 14:30 10,4 C 11,7 C 6,7 C 82 % 1008,1 hPa 0,0 l/m 2 min 0 min 422 W/m 25,7 km/h (4 Bft) 95,74 %
24.04.2023 14:32 10,5 C 11,7 C 6,7 C 81 % 1008,3 hPa 0,0 l/m 2 min 0 min 395 W/m 22,5 km/h (4 Bft) 95,74 %
24.04.2023 14:34 10,5 C 11,1 C 6,7 C 81 % 1008,2 hPa 0,0 l/m 2 min 0 min 379 W/m 25,7 km/h (4 Bft) 97,87 %
24.04.2023 14:36 10,5 C 11,1 C 6,7 C 80 % 1008,3 hPa 0,0 l/m 0 min 0 min 366 W/m 22,5 km/h (4 Bft) 93,62 %
24.04.2023 14:38 10,6 C 11,1 C 6,7 C 81 % 1008,3 hPa 0,0 l/m 0 min 0 min 368 W/m 19,3 km/h (3 Bft) 97,83 %
24.04.2023 14:40 10,6 C 11,7 C 7,2 C 81 % 1008,3 hPa 0,0 l/m 0 min 0 min 367 W/m 22,5 km/h (4 Bft) 95,74 %
24.04.2023 14:42 10,7 C 11,7 C 7,2 C 80 % 1008,3 hPa 0,0 l/m 2 min 0 min 448 W/m 25,7 km/h (4 Bft) 95,74 %
24.04.2023 14:44 10,7 C 11,1 C 7,2 C 78 % 1008,4 hPa 0,0 l/m 0 min 0 min 312 W/m 35,4 km/h (5 Bft) 97,87 %
24.04.2023 14:46 10,7 C 11,1 C 7,2 C 78 % 1008,3 hPa 0,0 l/m 0 min 0 min 287 W/m 19,3 km/h (3 Bft) 97,87 %
24.04.2023 14:48 10,6 C 10,6 C 7,2 C 78 % 1008,4 hPa 0,0 l/m 0 min 0 min 278 W/m 22,5 km/h (4 Bft) 95,74 %
24.04.2023 14:50 10,6 C 10,6 C 6,7 C 77 % 1008,4 hPa 0,0 l/m 0 min 0 min 283 W/m 25,7 km/h (4 Bft) 95,74 %
24.04.2023 14:52 10,6 C 10,6 C 6,7 C 77 % 1008,4 hPa 0,0 l/m 0 min 0 min 297 W/m 25,7 km/h (4 Bft) 95,65 %
24.04.2023 14:54 10,6 C 10,6 C 6,7 C 78 % 1008,5 hPa 0,0 l/m 0 min 0 min 305 W/m 25,7 km/h (4 Bft) 95,74 %
24.04.2023 14:56 10,6 C 11,1 C 7,2 C 78 % 1008,5 hPa 0,0 l/m 0 min 0 min 333 W/m 22,5 km/h (4 Bft) 97,87 %
24.04.2023 14:58 10,6 C 11,1 C 7,2 C 78 % 1008,5 hPa 0,0 l/m 2 min 0 min 363 W/m 22,5 km/h (4 Bft) 97,87 %
24.04.2023 15:00 10,6 C 11,1 C 7,2 C 78 % 1008,5 hPa 0,0 l/m 0 min 0 min 340 W/m 29,0 km/h (5 Bft) 95,74 %
24.04.2023 15:02 10,6 C 11,1 C 7,2 C 77 % 1008,5 hPa 0,0 l/m 0 min 0 min 320 W/m 22,5 km/h (4 Bft) 97,87 %
24.04.2023 15:04 10,6 C 11,1 C 7,2 C 77 % 1008,5 hPa 0,0 l/m 0 min 0 min 322 W/m 16,1 km/h (3 Bft) 97,87 %
24.04.2023 15:06 10,6 C 11,1 C 7,2 C 77 % 1008,5 hPa 0,0 l/m 0 min 0 min 350 W/m 22,5 km/h (4 Bft) 91,49 %
24.04.2023 15:08 10,7 C 11,1 C 7,2 C 77 % 1008,6 hPa 0,0 l/m 0 min 0 min 307 W/m 25,7 km/h (4 Bft) 100,00 %
24.04.2023 15:10 10,7 C 11,1 C 7,2 C 77 % 1008,6 hPa 0,0 l/m 0 min 0 min 283 W/m 16,1 km/h (3 Bft) 97,87 %
24.04.2023 15:12 10,7 C 11,1 C 7,2 C 77 % 1008,6 hPa 0,0 l/m 0 min 0 min 283 W/m 22,5 km/h (4 Bft) 97,87 %
24.04.2023 15:14 10,7 C 11,1 C 7,2 C 77 % 1008,6 hPa 0,0 l/m 0 min 0 min 288 W/m 25,7 km/h (4 Bft) 100,00 %
24.04.2023 15:16 10,7 C 10,6 C 7,2 C 77 % 1008,5 hPa 0,0 l/m 0 min 0 min 260 W/m 25,7 km/h (4 Bft) 100,00 %
24.04.2023 15:18 10,7 C 10,6 C 7,2 C 77 % 1008,6 hPa 0,0 l/m 0 min 0 min 248 W/m 19,3 km/h (3 Bft) 100,00 %
24.04.2023 15:20 10,7 C 10,6 C 7,2 C 76 % 1008,6 hPa 0,0 l/m 0 min 0 min 238 W/m 22,5 km/h (4 Bft) 100,00 %
24.04.2023 15:22 10,7 C 10,6 C 7,2 C 76 % 1008,7 hPa 0,0 l/m 0 min 0 min 229 W/m 16,1 km/h (3 Bft) 100,00 %
24.04.2023 15:24 10,6 C 10,6 C 6,7 C 77 % 1008,7 hPa 0,0 l/m 0 min 0 min 216 W/m 12,9 km/h (3 Bft) 100,00 %
24.04.2023 15:26 10,6 C 10,6 C 7,2 C 77 % 1008,7 hPa 0,0 l/m 0 min 0 min 204 W/m 16,1 km/h (3 Bft) 100,00 %
24.04.2023 15:28 10,6 C 10,6 C 6,7 C 76 % 1008,6 hPa 0,0 l/m 0 min 0 min 209 W/m 19,3 km/h (3 Bft) 100,00 %
24.04.2023 15:30 10,6 C 10,6 C 6,7 C 77 % 1008,7 hPa 0,0 l/m 0 min 0 min 207 W/m 19,3 km/h (3 Bft) 97,87 %
24.04.2023 15:32 10,6 C 10,6 C 6,7 C 76 % 1008,8 hPa 0,0 l/m 0 min 0 min 218 W/m 19,3 km/h (3 Bft) 100,00 %
24.04.2023 15:34 10,5 C 10,6 C 6,7 C 77 % 1008,7 hPa 0,0 l/m 0 min 0 min 250 W/m 25,7 km/h (4 Bft) 100,00 %
24.04.2023 15:36 10,4 C 10,0 C 6,7 C 76 % 1008,7 hPa 0,0 l/m 0 min 0 min 257 W/m 29,0 km/h (5 Bft) 100,00 %
24.04.2023 15:38 10,4 C 10,6 C 6,7 C 76 % 1008,8 hPa 0,0 l/m 0 min 0 min 232 W/m 19,3 km/h (3 Bft) 100,00 %
24.04.2023 15:40 10,4 C 10,6 C 6,7 C 77 % 1008,8 hPa 0,0 l/m 0 min 0 min 236 W/m 22,5 km/h (4 Bft) 100,00 %
24.04.2023 15:42 10,4 C 10,6 C 6,7 C 77 % 1008,8 hPa 0,0 l/m 0 min 0 min 248 W/m 22,5 km/h (4 Bft) 97,87 %
24.04.2023 15:44 10,5 C 10,6 C 6,7 C 77 % 1008,7 hPa 0,0 l/m 0 min 0 min 259 W/m 19,3 km/h (3 Bft) 100,00 %
24.04.2023 15:46 10,5 C 10,6 C 7,2 C 77 % 1008,8 hPa 0,0 l/m 0 min 0 min 228 W/m 19,3 km/h (3 Bft) 97,83 %
24.04.2023 15:48 10,5 C 10,6 C 6,7 C 77 % 1008,8 hPa 0,0 l/m 0 min 0 min 235 W/m 45,1 km/h (6 Bft) 97,87 %
24.04.2023 15:50 10,5 C 10,6 C 6,7 C 76 % 1008,8 hPa 0,0 l/m 0 min 0 min 244 W/m 25,7 km/h (4 Bft) 97,87 %
24.04.2023 15:52 10,5 C 10,6 C 6,7 C 77 % 1008,8 hPa 0,0 l/m 0 min 0 min 234 W/m 22,5 km/h (4 Bft) 97,87 %
24.04.2023 15:54 10,5 C 10,6 C 6,7 C 76 % 1008,8 hPa 0,0 l/m 0 min 0 min 243 W/m 22,5 km/h (4 Bft) 95,74 %
24.04.2023 15:56 10,5 C 11,1 C 7,2 C 76 % 1008,8 hPa 0,0 l/m 0 min 0 min 296 W/m 16,1 km/h (3 Bft) 97,87 %
24.04.2023 15:58 10,6 C 11,1 C 7,2 C 76 % 1008,8 hPa 0,0 l/m 2 min 0 min 330 W/m 22,5 km/h (4 Bft) 97,83 %
24.04.2023 16:00 10,6 C 10,6 C 7,2 C 76 % 1008,8 hPa 0,0 l/m 0 min 0 min 304 W/m 22,5 km/h (4 Bft) 97,87 %
24.04.2023 16:02 10,6 C 11,1 C 7,2 C 76 % 1008,8 hPa 0,0 l/m 2 min 0 min 345 W/m 16,1 km/h (3 Bft) 97,87 %
24.04.2023 16:04 10,7 C 11,1 C 7,2 C 76 % 1008,7 hPa 0,0 l/m 2 min 0 min 379 W/m 16,1 km/h (3 Bft) 97,92 %
24.04.2023 16:06 10,8 C 11,7 C 7,2 C 77 % 1008,8 hPa 0,0 l/m 2 min 0 min 383 W/m 22,5 km/h (4 Bft) 93,62 %
24.04.2023 16:08 10,8 C 11,7 C 7,2 C 76 % 1008,8 hPa 0,0 l/m 2 min 0 min 323 W/m 22,5 km/h (4 Bft) 95,74 %
24.04.2023 16:10 10,8 C 11,1 C 7,2 C 76 % 1008,7 hPa 0,0 l/m 0 min 0 min 276 W/m 16,1 km/h (3 Bft) 95,74 %
24.04.2023 16:12 10,8 C 11,1 C 7,2 C 76 % 1008,8 hPa 0,0 l/m 0 min 0 min 252 W/m 25,7 km/h (4 Bft) 97,83 %
24.04.2023 16:14 10,8 C 10,6 C 7,2 C 76 % 1008,8 hPa 0,0 l/m 0 min 0 min 219 W/m 29,0 km/h (5 Bft) 97,37 %
24.04.2023 16:16 10,7 C 10,6 C 7,2 C 74 % 1008,7 hPa 0,0 l/m 0 min 0 min 225 W/m 25,7 km/h (4 Bft) 95,74 %
24.04.2023 16:18 10,7 C 10,6 C 7,2 C 75 % 1008,8 hPa 0,0 l/m 0 min 0 min 233 W/m 16,1 km/h (3 Bft) 95,74 %
24.04.2023 16:20 10,7 C 10,6 C 7,2 C 76 % 1008,7 hPa 0,0 l/m 0 min 0 min 253 W/m 25,7 km/h (4 Bft) 97,87 %
24.04.2023 16:22 10,8 C 11,1 C 7,2 C 76 % 1008,7 hPa 0,0 l/m 0 min 0 min 280 W/m 12,9 km/h (3 Bft) 97,87 %
24.04.2023 16:24 10,8 C 11,1 C 7,2 C 75 % 1008,7 hPa 0,0 l/m 0 min 0 min 302 W/m 19,3 km/h (3 Bft) 93,62 %
24.04.2023 16:26 10,9 C 11,1 C 7,2 C 75 % 1008,7 hPa 0,0 l/m 2 min 0 min 310 W/m 16,1 km/h (3 Bft) 95,74 %
24.04.2023 16:28 10,9 C 11,7 C 7,2 C 75 % 1008,7 hPa 0,0 l/m 2 min 0 min 326 W/m 19,3 km/h (3 Bft) 93,48 %
24.04.2023 16:30 11,0 C 11,7 C 7,2 C 75 % 1008,7 hPa 0,0 l/m 2 min 0 min 335 W/m 12,9 km/h (3 Bft) 97,87 %
24.04.2023 16:32 11,1 C 11,7 C 7,8 C 75 % 1008,7 hPa 0,0 l/m 2 min 0 min 344 W/m 16,1 km/h (3 Bft) 95,74 %
24.04.2023 16:34 11,1 C 11,7 C 7,2 C 74 % 1008,7 hPa 0,0 l/m 2 min 0 min 301 W/m 22,5 km/h (4 Bft) 97,87 %
24.04.2023 16:36 11,1 C 11,7 C 7,2 C 75 % 1008,7 hPa 0,0 l/m 2 min 0 min 303 W/m 16,1 km/h (3 Bft) 97,87 %
24.04.2023 16:38 11,1 C 11,7 C 7,8 C 76 % 1008,8 hPa 0,0 l/m 0 min 0 min 284 W/m 16,1 km/h (3 Bft) 97,87 %
24.04.2023 16:40 11,2 C 11,7 C 7,8 C 75 % 1008,7 hPa 0,0 l/m 2 min 0 min 323 W/m 16,1 km/h (3 Bft) 97,87 %
24.04.2023 16:42 11,2 C 11,7 C 7,8 C 75 % 1008,8 hPa 0,0 l/m 2 min 0 min 322 W/m 16,1 km/h (3 Bft) 95,65 %
24.04.2023 16:44 11,2 C 11,7 C 7,8 C 75 % 1008,8 hPa 0,0 l/m 0 min 0 min 259 W/m 25,7 km/h (4 Bft) 95,74 %
24.04.2023 16:46 11,3 C 11,7 C 7,8 C 75 % 1008,7 hPa 0,0 l/m 0 min 0 min 265 W/m 12,9 km/h (3 Bft) 95,74 %
24.04.2023 16:48 11,2 C 11,7 C 7,8 C 75 % 1008,7 hPa 0,0 l/m 2 min 0 min 287 W/m 22,5 km/h (4 Bft) 95,74 %
24.04.2023 16:50 11,2 C 11,1 C 7,2 C 73 % 1008,8 hPa 0,0 l/m 2 min 0 min 288 W/m 16,1 km/h (3 Bft) 95,74 %
24.04.2023 16:52 11,1 C 11,7 C 7,2 C 74 % 1008,8 hPa 0,0 l/m 2 min 0 min 330 W/m 19,3 km/h (3 Bft) 93,62 %
24.04.2023 16:54 11,2 C 12,2 C 7,8 C 74 % 1008,8 hPa 0,0 l/m 2 min 0 min 399 W/m 16,1 km/h (3 Bft) 95,74 %
24.04.2023 16:56 11,3 C 12,8 C 7,8 C 75 % 1008,8 hPa 0,0 l/m 2 min 0 min 399 W/m 16,1 km/h (3 Bft) 95,65 %
24.04.2023 16:58 11,4 C 12,8 C 7,8 C 75 % 1008,9 hPa 0,0 l/m 2 min 0 min 397 W/m 12,9 km/h (3 Bft) 95,74 %
24.04.2023 17:00 11,5 C 12,2 C 7,8 C 75 % 1008,9 hPa 0,0 l/m 2 min 0 min 274 W/m 16,1 km/h (3 Bft) 93,62 %
24.04.2023 17:02 11,5 C 11,7 C 7,8 C 74 % 1008,9 hPa 0,0 l/m 0 min 0 min 241 W/m 19,3 km/h (3 Bft) 95,74 %
24.04.2023 17:04 11,4 C 11,7 C 7,8 C 74 % 1008,9 hPa 0,0 l/m 2 min 0 min 290 W/m 16,1 km/h (3 Bft) 95,83 %
24.04.2023 17:06 11,4 C 12,2 C 7,8 C 74 % 1008,9 hPa 0,0 l/m 2 min 0 min 370 W/m 16,1 km/h (3 Bft) 96,30 %
24.04.2023 17:08 11,4 C 12,2 C 7,8 C 74 % 1008,9 hPa 0,0 l/m 2 min 0 min 357 W/m 16,1 km/h (3 Bft) 95,74 %
24.04.2023 17:10 11,5 C 12,8 C 7,8 C 75 % 1008,9 hPa 0,0 l/m 2 min 0 min 474 W/m 19,3 km/h (3 Bft) 95,74 %
24.04.2023 17:12 11,6 C 13,9 C 7,8 C 75 % 1008,9 hPa 0,0 l/m 2 min 0 min 533 W/m 19,3 km/h (3 Bft) 95,74 %
24.04.2023 17:14 11,7 C 14,4 C 8,3 C 75 % 1008,9 hPa 0,0 l/m 2 min 0 min 698 W/m 22,5 km/h (4 Bft) 95,74 %
24.04.2023 17:16 11,9 C 13,9 C 8,3 C 75 % 1008,9 hPa 0,0 l/m 2 min 0 min 682 W/m 16,1 km/h (3 Bft) 93,62 %
24.04.2023 17:18 11,9 C 14,4 C 8,3 C 74 % 1008,9 hPa 0,0 l/m 2 min 0 min 686 W/m 25,7 km/h (4 Bft) 95,74 %
24.04.2023 17:20 12,0 C 15,0 C 8,3 C 73 % 1009,0 hPa 0,0 l/m 2 min 0 min 673 W/m 29,0 km/h (5 Bft) 95,65 %
24.04.2023 17:22 12,1 C 13,9 C 8,3 C 72 % 1008,9 hPa 0,0 l/m 2 min 0 min 417 W/m 22,5 km/h (4 Bft) 97,87 %
24.04.2023 17:24 12,0 C 12,8 C 7,8 C 71 % 1008,9 hPa 0,0 l/m 0 min 0 min 160 W/m 19,3 km/h (3 Bft) 97,87 %
24.04.2023 17:26 11,9 C 13,9 C 8,3 C 72 % 1008,9 hPa 0,0 l/m 0 min 0 min 160 W/m 19,3 km/h (3 Bft) 100,00 %
24.04.2023 17:28 11,9 C 13,3 C 8,3 C 72 % 1009,0 hPa 0,0 l/m 0 min 0 min 160 W/m 22,5 km/h (4 Bft) 100,00 %
24.04.2023 17:30 12,0 C 13,9 C 8,3 C 72 % 1009,0 hPa 0,0 l/m 0 min 0 min 160 W/m 16,1 km/h (3 Bft) 100,00 %
24.04.2023 17:32 12,0 C 13,3 C 8,3 C 72 % 1009,0 hPa 0,0 l/m 0 min 0 min 209 W/m 32,2 km/h (5 Bft) 97,87 %
24.04.2023 17:34 12,0 C 13,9 C 8,3 C 72 % 1009,0 hPa 0,0 l/m 2 min 0 min 455 W/m 22,5 km/h (4 Bft) 100,00 %
24.04.2023 17:36 12,1 C 13,3 C 8,3 C 72 % 1009,0 hPa 0,0 l/m 2 min 0 min 522 W/m 25,7 km/h (4 Bft) 100,00 %
24.04.2023 17:38 11,9 C 12,2 C 7,8 C 72 % 1009,1 hPa 0,0 l/m 0 min 0 min 171 W/m 19,3 km/h (3 Bft) 93,62 %
24.04.2023 17:40 11,8 C 12,2 C 7,8 C 72 % 1009,1 hPa 0,0 l/m 0 min 0 min 184 W/m 16,1 km/h (3 Bft) 97,87 %
24.04.2023 17:42 11,8 C 12,8 C 7,8 C 72 % 1009,0 hPa 0,0 l/m 0 min 0 min 190 W/m 16,1 km/h (3 Bft) 93,62 %
24.04.2023 17:44 11,8 C 12,2 C 7,8 C 72 % 1009,0 hPa 0,0 l/m 2 min 0 min 279 W/m 19,3 km/h (3 Bft) 100,00 %
24.04.2023 17:46 11,7 C 11,7 C 7,8 C 73 % 1009,0 hPa 0,0 l/m 0 min 0 min 147 W/m 19,3 km/h (3 Bft) 100,00 %
24.04.2023 17:48 11,6 C 11,1 C 7,8 C 73 % 1009,0 hPa 0,0 l/m 0 min 0 min 131 W/m 22,5 km/h (4 Bft) 100,00 %
24.04.2023 17:50 11,6 C 11,1 C 7,2 C 74 % 1009,0 hPa 0,0 l/m 0 min 0 min 108 W/m 25,7 km/h (4 Bft) 100,00 %
24.04.2023 17:52 11,4 C 11,1 C 7,2 C 74 % 1009,1 hPa 0,0 l/m 0 min 0 min 148 W/m 19,3 km/h (3 Bft) 100,00 %
24.04.2023 17:54 11,4 C 11,1 C 7,2 C 75 % 1009,0 hPa 0,0 l/m 0 min 0 min 142 W/m 9,7 km/h (2 Bft) 100,00 %
24.04.2023 17:56 11,3 C 11,1 C 7,2 C 75 % 1009,1 hPa 0,0 l/m 0 min 0 min 134 W/m 9,7 km/h (2 Bft) 100,00 %
24.04.2023 17:58 11,2 C 11,1 C 7,2 C 76 % 1009,2 hPa 0,0 l/m 0 min 0 min 154 W/m 19,3 km/h (3 Bft) 100,00 %
24.04.2023 18:00 11,2 C 12,8 C 7,2 C 77 % 1009,2 hPa 0,0 l/m 2 min 0 min 260 W/m 22,5 km/h (4 Bft) 100,00 %
24.04.2023 18:02 11,2 C 13,9 C 7,8 C 77 % 1009,1 hPa 0,0 l/m 2 min 0 min 489 W/m 25,7 km/h (4 Bft) 100,00 %
24.04.2023 18:04 11,3 C 13,9 C 7,8 C 77 % 1009,1 hPa 0,0 l/m 2 min 0 min 446 W/m 19,3 km/h (3 Bft) 100,00 %
24.04.2023 18:07 11,4 C 15,0 C 8,3 C 77 % 1009,2 hPa 0,0 l/m 3 min 0 min 404 W/m 19,3 km/h (3 Bft) 100,00 %
24.04.2023 18:08 11,4 C 15,0 C 8,3 C 77 % 1009,2 hPa 0,0 l/m 1 min 0 min 390 W/m 12,9 km/h (3 Bft) 100,00 %
24.04.2023 18:12 11,6 C 14,4 C 8,3 C 77 % 1009,2 hPa 0,0 l/m 4 min 0 min 383 W/m 19,3 km/h (3 Bft) 98,28 %
24.04.2023 18:14 11,6 C 13,9 C 8,3 C 76 % 1009,2 hPa 0,0 l/m 2 min 0 min 378 W/m 19,3 km/h (3 Bft) 95,74 %
24.04.2023 18:16 11,5 C 13,3 C 7,8 C 76 % 1009,1 hPa 0,0 l/m 2 min 0 min 378 W/m 12,9 km/h (3 Bft) 97,87 %
24.04.2023 18:18 11,5 C 13,9 C 7,8 C 76 % 1009,1 hPa 0,0 l/m 2 min 0 min 378 W/m 12,9 km/h (3 Bft) 97,87 %
24.04.2023 18:20 11,5 C 13,3 C 7,8 C 76 % 1009,2 hPa 0,0 l/m 2 min 0 min 374 W/m 16,1 km/h (3 Bft) 95,74 %
24.04.2023 18:22 11,5 C 12,8 C 7,8 C 76 % 1009,1 hPa 0,0 l/m 2 min 0 min 313 W/m 6,4 km/h (2 Bft) 97,87 %
24.04.2023 18:24 11,4 C 11,7 C 7,8 C 76 % 1009,2 hPa 0,0 l/m 0 min 0 min 115 W/m 16,1 km/h (3 Bft) 97,87 %
24.04.2023 18:26 11,4 C 12,2 C 7,2 C 76 % 1009,1 hPa 0,0 l/m 0 min 0 min 125 W/m 12,9 km/h (3 Bft) 95,65 %
24.04.2023 18:28 11,4 C 13,3 C 7,8 C 76 % 1009,2 hPa 0,0 l/m 2 min 0 min 266 W/m 12,9 km/h (3 Bft) 97,87 %
24.04.2023 18:30 11,4 C 13,9 C 7,8 C 77 % 1009,2 hPa 0,0 l/m 2 min 0 min 338 W/m 12,9 km/h (3 Bft) 95,74 %
24.04.2023 18:32 11,5 C 14,4 C 7,8 C 77 % 1009,2 hPa 0,0 l/m 2 min 0 min 330 W/m 16,1 km/h (3 Bft) 97,87 %
24.04.2023 18:34 11,6 C 13,9 C 7,8 C 77 % 1009,2 hPa 0,0 l/m 2 min 0 min 296 W/m 16,1 km/h (3 Bft) 97,87 %
24.04.2023 18:36 11,6 C 12,8 C 7,8 C 76 % 1009,2 hPa 0,0 l/m 2 min 0 min 172 W/m 12,9 km/h (3 Bft) 97,87 %
24.04.2023 18:38 11,4 C 12,2 C 7,2 C 75 % 1009,2 hPa 0,0 l/m 2 min 0 min 266 W/m 22,5 km/h (4 Bft) 97,87 %
24.04.2023 18:40 11,4 C 11,7 C 7,2 C 75 % 1009,3 hPa 0,0 l/m 2 min 0 min 297 W/m 12,9 km/h (3 Bft) 97,83 %
24.04.2023 18:42 11,3 C 11,1 C 7,2 C 75 % 1009,3 hPa 0,0 l/m 2 min 0 min 294 W/m 22,5 km/h (4 Bft) 97,87 %
24.04.2023 18:44 11,3 C 11,1 C 7,2 C 75 % 1009,4 hPa 0,0 l/m 2 min 0 min 294 W/m 19,3 km/h (3 Bft) 95,74 %
24.04.2023 18:46 11,2 C 10,6 C 7,2 C 75 % 1009,3 hPa 0,0 l/m 2 min 0 min 262 W/m 12,9 km/h (3 Bft) 95,74 %
24.04.2023 18:48 11,2 C 10,6 C 7,2 C 75 % 1009,3 hPa 0,0 l/m 2 min 0 min 199 W/m 19,3 km/h (3 Bft) 95,74 %
24.04.2023 18:50 11,2 C 10,6 C 7,2 C 76 % 1009,4 hPa 0,0 l/m 2 min 0 min 264 W/m 22,5 km/h (4 Bft) 97,87 %
24.04.2023 18:52 11,1 C 10,6 C 6,7 C 76 % 1009,4 hPa 0,0 l/m 2 min 0 min 187 W/m 16,1 km/h (3 Bft) 97,87 %
24.04.2023 18:54 11,1 C 10,6 C 6,7 C 76 % 1009,5 hPa 0,0 l/m 0 min 0 min 108 W/m 16,1 km/h (3 Bft) 97,83 %
24.04.2023 18:56 10,9 C 10,6 C 6,7 C 75 % 1009,4 hPa 0,0 l/m 0 min 0 min 95 W/m 16,1 km/h (3 Bft) 100,00 %
24.04.2023 18:58 10,8 C 10,0 C 6,7 C 75 % 1009,5 hPa 0,0 l/m 0 min 0 min 91 W/m 16,1 km/h (3 Bft) 97,87 %
24.04.2023 19:00 10,8 C 10,6 C 6,7 C 76 % 1009,5 hPa 0,0 l/m 0 min 0 min 97 W/m 19,3 km/h (3 Bft) 97,87 %
24.04.2023 19:02 10,8 C 10,6 C 6,7 C 76 % 1009,5 hPa 0,0 l/m 0 min 0 min 108 W/m 16,1 km/h (3 Bft) 100,00 %
24.04.2023 19:04 10,7 C 10,6 C 6,7 C 76 % 1009,5 hPa 0,0 l/m 0 min 0 min 88 W/m 16,1 km/h (3 Bft) 100,00 %
24.04.2023 19:06 10,7 C 10,6 C 6,7 C 76 % 1009,5 hPa 0,0 l/m 0 min 0 min 72 W/m 16,1 km/h (3 Bft) 100,00 %
24.04.2023 19:08 10,7 C 10,6 C 6,7 C 76 % 1009,5 hPa 0,0 l/m 0 min 0 min 72 W/m 12,9 km/h (3 Bft) 100,00 %
24.04.2023 19:10 10,7 C 10,6 C 6,7 C 76 % 1009,4 hPa 0,0 l/m 0 min 0 min 61 W/m 29,0 km/h (5 Bft) 97,87 %
24.04.2023 19:12 10,7 C 10,0 C 6,7 C 75 % 1009,4 hPa 0,0 l/m 0 min 0 min 54 W/m 19,3 km/h (3 Bft) 100,00 %
24.04.2023 19:14 10,7 C 10,0 C 6,7 C 75 % 1009,5 hPa 0,0 l/m 0 min 0 min 54 W/m 12,9 km/h (3 Bft) 95,74 %
24.04.2023 19:16 10,7 C 10,0 C 6,7 C 75 % 1009,5 hPa 0,0 l/m 0 min 0 min 46 W/m 16,1 km/h (3 Bft) 97,87 %
24.04.2023 19:18 10,6 C 10,0 C 6,7 C 75 % 1009,5 hPa 0,0 l/m 0 min 0 min 49 W/m 9,7 km/h (2 Bft) 97,87 %
24.04.2023 19:20 10,6 C 10,0 C 6,1 C 75 % 1009,4 hPa 0,0 l/m 0 min 0 min 49 W/m 6,4 km/h (2 Bft) 97,87 %
24.04.2023 19:22 10,6 C 10,0 C 6,1 C 75 % 1009,4 hPa 0,0 l/m 0 min 0 min 46 W/m 16,1 km/h (3 Bft) 97,83 %
24.04.2023 19:24 10,5 C 10,0 C 6,1 C 75 % 1009,4 hPa 0,0 l/m 0 min 0 min 48 W/m 16,1 km/h (3 Bft) 97,87 %
24.04.2023 19:26 10,4 C 10,0 C 6,1 C 75 % 1009,5 hPa 0,0 l/m 0 min 0 min 51 W/m 16,1 km/h (3 Bft) 95,74 %
24.04.2023 19:28 10,4 C 10,0 C 6,1 C 76 % 1009,5 hPa 0,0 l/m 0 min 0 min 54 W/m 6,4 km/h (2 Bft) 97,87 %
24.04.2023 19:30 10,4 C 10,0 C 6,1 C 76 % 1009,5 hPa 0,0 l/m 0 min 0 min 52 W/m 22,5 km/h (4 Bft) 95,74 %
24.04.2023 19:32 10,3 C 9,4 C 6,1 C 77 % 1009,5 hPa 0,0 l/m 0 min 0 min 40 W/m 22,5 km/h (4 Bft) 97,87 %
24.04.2023 19:34 10,3 C 9,4 C 6,1 C 77 % 1009,5 hPa 0,0 l/m 0 min 0 min 38 W/m 9,7 km/h (2 Bft) 97,87 %
24.04.2023 19:36 10,2 C 9,4 C 5,6 C 78 % 1009,6 hPa 0,0 l/m 0 min 0 min 36 W/m 9,7 km/h (2 Bft) 97,83 %
24.04.2023 19:38 10,2 C 9,4 C 5,6 C 78 % 1009,6 hPa 0,0 l/m 0 min 0 min 36 W/m 9,7 km/h (2 Bft) 95,74 %
24.04.2023 19:40 10,1 C 9,4 C 5,6 C 78 % 1009,7 hPa 0,0 l/m 0 min 0 min 36 W/m 9,7 km/h (2 Bft) 97,87 %
24.04.2023 19:42 10,1 C 8,9 C 5,6 C 79 % 1009,8 hPa 0,0 l/m 0 min 0 min 39 W/m 9,7 km/h (2 Bft) 95,74 %
24.04.2023 19:44 9,9 C 8,9 C 5,6 C 79 % 1009,7 hPa 0,0 l/m 0 min 0 min 40 W/m 12,9 km/h (3 Bft) 95,74 %
24.04.2023 19:46 9,9 C 8,9 C 5,6 C 80 % 1009,7 hPa 0,0 l/m 0 min 0 min 44 W/m 9,7 km/h (2 Bft) 95,74 %
24.04.2023 19:48 9,8 C 8,9 C 5,6 C 80 % 1009,7 hPa 0,0 l/m 0 min 0 min 42 W/m 12,9 km/h (3 Bft) 97,83 %
24.04.2023 19:50 9,8 C 8,9 C 5,6 C 80 % 1009,8 hPa 0,0 l/m 0 min 0 min 35 W/m 9,7 km/h (2 Bft) 97,87 %
24.04.2023 19:52 9,7 C 8,9 C 5,6 C 80 % 1009,7 hPa 0,0 l/m 0 min 0 min 33 W/m 9,7 km/h (2 Bft) 95,74 %
24.04.2023 19:54 9,7 C 8,9 C 5,6 C 81 % 1009,8 hPa 0,0 l/m 0 min 0 min 32 W/m 9,7 km/h (2 Bft) 97,87 %
24.04.2023 19:56 9,6 C 8,9 C 5,6 C 81 % 1009,8 hPa 0,0 l/m 0 min 0 min 28 W/m 9,7 km/h (2 Bft) 95,74 %
24.04.2023 19:58 9,6 C 8,9 C 5,6 C 81 % 1009,7 hPa 0,0 l/m 0 min 0 min 24 W/m 6,4 km/h (2 Bft) 95,74 %
24.04.2023 20:00 9,6 C 8,9 C 5,6 C 81 % 1009,8 hPa 0,0 l/m 0 min 0 min 22 W/m 6,4 km/h (2 Bft) 95,74 %
24.04.2023 20:02 9,6 C 8,9 C 5,6 C 82 % 1009,8 hPa 0,0 l/m 0 min 0 min 21 W/m 3,2 km/h (1 Bft) 97,83 %
24.04.2023 20:04 9,6 C 8,9 C 5,6 C 82 % 1009,8 hPa 0,0 l/m 0 min 0 min 18 W/m 3,2 km/h (1 Bft) 97,87 %
24.04.2023 20:06 9,6 C 8,9 C 5,6 C 82 % 1009,8 hPa 0,0 l/m 0 min 0 min 19 W/m 6,4 km/h (2 Bft) 94,92 %
24.04.2023 20:08 9,6 C 8,9 C 5,6 C 82 % 1009,8 hPa 0,0 l/m 0 min 0 min 22 W/m 6,4 km/h (2 Bft) 94,29 %
24.04.2023 20:10 9,6 C 8,9 C 5,6 C 82 % 1009,8 hPa 0,0 l/m 0 min 0 min 21 W/m 9,7 km/h (2 Bft) 97,87 %
24.04.2023 20:12 9,6 C 8,9 C 5,6 C 82 % 1009,8 hPa 0,0 l/m 0 min 0 min 18 W/m 3,2 km/h (1 Bft) 97,87 %
24.04.2023 20:14 9,5 C 8,9 C 5,6 C 82 % 1009,9 hPa 0,0 l/m 0 min 0 min 16 W/m 3,2 km/h (1 Bft) 97,87 %
24.04.2023 20:16 9,5 C 8,9 C 5,6 C 83 % 1009,9 hPa 0,0 l/m 0 min 0 min 14 W/m 6,4 km/h (2 Bft) 97,83 %
24.04.2023 20:18 9,5 C 8,9 C 5,6 C 83 % 1009,9 hPa 0,0 l/m 0 min 0 min 13 W/m 3,2 km/h (1 Bft) 97,87 %
24.04.2023 20:20 9,4 C 8,9 C 5,6 C 83 % 1009,9 hPa 0,0 l/m 0 min 0 min 11 W/m 3,2 km/h (1 Bft) 97,87 %
24.04.2023 20:22 9,5 C 8,9 C 5,6 C 84 % 1009,9 hPa 0,0 l/m 0 min 0 min 9 W/m 3,2 km/h (1 Bft) 97,87 %
24.04.2023 20:24 9,5 C 8,9 C 5,6 C 84 % 1010,0 hPa 0,0 l/m 0 min 0 min 7 W/m 6,4 km/h (2 Bft) 100,00 %
24.04.2023 20:26 9,5 C 8,9 C 5,6 C 84 % 1010,0 hPa 0,0 l/m 0 min 0 min 7 W/m 9,7 km/h (2 Bft) 100,00 %
24.04.2023 20:28 9,5 C 8,9 C 5,6 C 84 % 1010,0 hPa 0,0 l/m 0 min 0 min 7 W/m 6,4 km/h (2 Bft) 100,00 %
24.04.2023 20:30 9,6 C 8,9 C 5,6 C 84 % 1010,0 hPa 0,0 l/m 0 min 0 min 7 W/m 6,4 km/h (2 Bft) 100,00 %
24.04.2023 20:32 9,6 C 9,4 C 5,6 C 84 % 1010,0 hPa 0,0 l/m 0 min 0 min 7 W/m 6,4 km/h (2 Bft) 100,00 %
24.04.2023 20:34 9,6 C 9,4 C 5,6 C 84 % 1010,0 hPa 0,0 l/m 0 min 0 min 7 W/m 12,9 km/h (3 Bft) 100,00 %
24.04.2023 20:36 9,6 C 9,4 C 5,6 C 83 % 1010,0 hPa 0,0 l/m 0 min 0 min 5 W/m 9,7 km/h (2 Bft) 100,00 %
24.04.2023 20:38 9,6 C 8,9 C 5,6 C 83 % 1010,1 hPa 0,0 l/m 0 min 0 min 5 W/m 9,7 km/h (2 Bft) 100,00 %
24.04.2023 20:40 9,6 C 9,4 C 5,6 C 83 % 1010,1 hPa 0,0 l/m 0 min 0 min 3 W/m 9,7 km/h (2 Bft) 100,00 %
24.04.2023 20:42 9,6 C 9,4 C 5,6 C 83 % 1010,1 hPa 0,0 l/m 0 min 0 min 0 W/m 6,4 km/h (2 Bft) 97,83 %
24.04.2023 20:44 9,6 C 8,9 C 5,6 C 83 % 1010,1 hPa 0,0 l/m 0 min 0 min 0 W/m 6,4 km/h (2 Bft) 95,74 %
24.04.2023 20:46 9,7 C 8,9 C 5,6 C 83 % 1010,1 hPa 0,0 l/m 0 min 0 min 0 W/m 12,9 km/h (3 Bft) 100,00 %
24.04.2023 20:48 9,7 C 9,4 C 5,6 C 83 % 1010,2 hPa 0,0 l/m 0 min 0 min 0 W/m 6,4 km/h (2 Bft) 100,00 %
24.04.2023 20:50 9,7 C 8,9 C 5,6 C 83 % 1010,2 hPa 0,0 l/m 0 min 0 min 0 W/m 6,4 km/h (2 Bft) 100,00 %
24.04.2023 20:52 9,7 C 8,9 C 5,6 C 83 % 1010,2 hPa 0,0 l/m 0 min 0 min 0 W/m 3,2 km/h (1 Bft) 97,87 %
24.04.2023 20:54 9,7 C 9,4 C 5,6 C 83 % 1010,2 hPa 0,0 l/m 0 min 0 min 0 W/m 6,4 km/h (2 Bft) 100,00 %
24.04.2023 20:56 9,7 C 8,9 C 5,6 C 83 % 1010,2 hPa 0,0 l/m 0 min 0 min 0 W/m 6,4 km/h (2 Bft) 95,65 %
24.04.2023 20:58 9,7 C 8,9 C 5,6 C 82 % 1010,2 hPa 0,0 l/m 0 min 0 min 0 W/m 6,4 km/h (2 Bft) 97,87 %
24.04.2023 21:00 9,7 C 8,9 C 5,6 C 82 % 1010,2 hPa 0,0 l/m 0 min 0 min 0 W/m 9,7 km/h (2 Bft) 97,87 %
24.04.2023 21:02 9,7 C 8,9 C 5,6 C 82 % 1010,2 hPa 0,0 l/m 0 min 0 min 0 W/m 12,9 km/h (3 Bft) 97,87 %
24.04.2023 21:04 9,6 C 8,9 C 5,0 C 81 % 1010,3 hPa 0,0 l/m 0 min 0 min 0 W/m 6,4 km/h (2 Bft) 95,12 %
24.04.2023 21:06 9,6 C 8,9 C 5,0 C 81 % 1010,3 hPa 0,0 l/m 0 min 0 min 0 W/m 6,4 km/h (2 Bft) 95,31 %
24.04.2023 21:08 9,5 C 8,3 C 5,0 C 82 % 1010,4 hPa 0,0 l/m 0 min 0 min 0 W/m 3,2 km/h (1 Bft) 93,33 %
24.04.2023 21:10 9,4 C 8,3 C 5,0 C 82 % 1010,4 hPa 0,0 l/m 0 min 0 min 0 W/m 3,2 km/h (1 Bft) 91,49 %
24.04.2023 21:12 9,4 C 8,3 C 5,0 C 81 % 1010,4 hPa 0,0 l/m 0 min 0 min 0 W/m 6,4 km/h (2 Bft) 95,74 %
24.04.2023 21:14 9,4 C 8,3 C 5,0 C 82 % 1010,4 hPa 0,0 l/m 0 min 0 min 0 W/m 3,2 km/h (1 Bft) 93,62 %
24.04.2023 21:16 9,3 C 8,3 C 5,0 C 82 % 1010,5 hPa 0,0 l/m 0 min 0 min 0 W/m 6,4 km/h (2 Bft) 95,65 %
24.04.2023 21:18 9,3 C 8,3 C 5,0 C 82 % 1010,4 hPa 0,0 l/m 0 min 0 min 0 W/m 6,4 km/h (2 Bft) 93,62 %
24.04.2023 21:20 9,2 C 8,3 C 5,0 C 82 % 1010,4 hPa 0,0 l/m 0 min 0 min 0 W/m 9,7 km/h (2 Bft) 91,49 %
24.04.2023 21:22 9,2 C 7,8 C 4,4 C 82 % 1010,5 hPa 0,0 l/m 0 min 0 min 0 W/m 6,4 km/h (2 Bft) 93,62 %
24.04.2023 21:24 9,1 C 7,8 C 4,4 C 82 % 1010,5 hPa 0,0 l/m 0 min 0 min 0 W/m 6,4 km/h (2 Bft) 95,74 %
24.04.2023 21:26 9,1 C 7,8 C 4,4 C 82 % 1010,5 hPa 0,0 l/m 0 min 0 min 0 W/m 6,4 km/h (2 Bft) 89,36 %
24.04.2023 21:28 9,0 C 7,8 C 4,4 C 82 % 1010,5 hPa 0,0 l/m 0 min 0 min 0 W/m 3,2 km/h (1 Bft) 95,74 %
24.04.2023 21:30 9,0 C 7,8 C 4,4 C 82 % 1010,6 hPa 0,0 l/m 0 min 0 min 0 W/m 3,2 km/h (1 Bft) 93,48 %
24.04.2023 21:32 8,9 C 7,8 C 4,4 C 82 % 1010,6 hPa 0,0 l/m 0 min 0 min 0 W/m 3,2 km/h (1 Bft) 93,62 %
24.04.2023 21:34 8,9 C 7,8 C 4,4 C 82 % 1010,6 hPa 0,0 l/m 0 min 0 min 0 W/m 6,4 km/h (2 Bft) 96,30 %
24.04.2023 21:36 8,9 C 7,8 C 4,4 C 82 % 1010,6 hPa 0,0 l/m 0 min 0 min 0 W/m 6,4 km/h (2 Bft) 97,83 %
24.04.2023 21:38 8,8 C 7,8 C 4,4 C 83 % 1010,6 hPa 0,0 l/m 0 min 0 min 0 W/m 3,2 km/h (1 Bft) 95,74 %
24.04.2023 21:40 8,8 C 7,8 C 4,4 C 83 % 1010,6 hPa 0,0 l/m 0 min 0 min 0 W/m 3,2 km/h (1 Bft) 97,87 %
24.04.2023 21:42 8,8 C 7,8 C 4,4 C 83 % 1010,7 hPa 0,0 l/m 0 min 0 min 0 W/m 3,2 km/h (1 Bft) 95,92 %
24.04.2023 21:44 8,8 C 7,8 C 3,9 C 83 % 1010,7 hPa 0,0 l/m 0 min 0 min 0 W/m 3,2 km/h (1 Bft) 97,87 %
24.04.2023 21:46 8,7 C 7,8 C 3,9 C 83 % 1010,7 hPa 0,0 l/m 0 min 0 min 0 W/m 3,2 km/h (1 Bft) 97,87 %
24.04.2023 21:48 8,7 C 7,8 C 3,9 C 83 % 1010,7 hPa 0,0 l/m 0 min 0 min 0 W/m 3,2 km/h (1 Bft) 100,00 %
24.04.2023 21:50 8,7 C 7,8 C 3,9 C 83 % 1010,8 hPa 0,0 l/m 0 min 0 min 0 W/m 3,2 km/h (1 Bft) 97,87 %
24.04.2023 21:52 8,6 C 7,2 C 3,9 C 83 % 1010,7 hPa 0,0 l/m 0 min 0 min 0 W/m 3,2 km/h (1 Bft) 97,87 %
24.04.2023 21:54 8,6 C 7,2 C 3,9 C 83 % 1010,8 hPa 0,0 l/m 0 min 0 min 0 W/m 0,0 km/h (0 Bft) 97,96 %
24.04.2023 21:56 8,5 C 7,2 C 3,9 C 83 % 1010,7 hPa 0,0 l/m 0 min 0 min 0 W/m 0,0 km/h (0 Bft) 93,62 %
24.04.2023 21:58 8,4 C 7,2 C 3,9 C 84 % 1010,8 hPa 0,0 l/m 0 min 0 min 0 W/m 3,2 km/h (1 Bft) 100,00 %
24.04.2023 22:00 8,4 C 7,2 C 3,9 C 84 % 1010,8 hPa 0,0 l/m 0 min 0 min 0 W/m 0,0 km/h (0 Bft) 100,00 %
24.04.2023 22:02 8,3 C 7,2 C 3,9 C 84 % 1010,8 hPa 0,0 l/m 0 min 0 min 0 W/m 3,2 km/h (1 Bft) 100,00 %
24.04.2023 22:04 8,3 C 7,2 C 3,9 C 84 % 1010,8 hPa 0,0 l/m 0 min 0 min 0 W/m 0,0 km/h (0 Bft) 97,92 %
24.04.2023 22:06 8,3 C 7,2 C 3,9 C 84 % 1010,7 hPa 0,0 l/m 0 min 0 min 0 W/m 0,0 km/h (0 Bft) 93,10 %
24.04.2023 22:08 8,3 C 7,2 C 3,9 C 84 % 1010,8 hPa 0,0 l/m 0 min 0 min 0 W/m 3,2 km/h (1 Bft) 97,22 %
24.04.2023 22:10 8,2 C 7,2 C 3,9 C 84 % 1010,7 hPa 0,0 l/m 0 min 0 min 0 W/m 3,2 km/h (1 Bft) 98,18 %
24.04.2023 22:12 8,2 C 6,7 C 3,9 C 84 % 1010,8 hPa 0,0 l/m 0 min 0 min 0 W/m 3,2 km/h (1 Bft) 97,87 %
24.04.2023 22:14 8,1 C 6,7 C 3,9 C 84 % 1010,9 hPa 0,0 l/m 0 min 0 min 0 W/m 6,4 km/h (2 Bft) 97,87 %
24.04.2023 22:16 8,1 C 6,7 C 3,3 C 85 % 1010,8 hPa 0,0 l/m 0 min 0 min 0 W/m 3,2 km/h (1 Bft) 95,83 %
24.04.2023 22:18 8,1 C 6,7 C 3,3 C 85 % 1010,8 hPa 0,0 l/m 0 min 0 min 0 W/m 0,0 km/h (0 Bft) 95,74 %
24.04.2023 22:20 8,0 C 6,7 C 3,3 C 85 % 1010,8 hPa 0,0 l/m 0 min 0 min 0 W/m 3,2 km/h (1 Bft) 95,83 %
24.04.2023 22:22 8,0 C 6,7 C 3,3 C 85 % 1010,8 hPa 0,0 l/m 0 min 0 min 0 W/m 6,4 km/h (2 Bft) 97,87 %
24.04.2023 22:24 8,0 C 7,2 C 3,9 C 85 % 1010,7 hPa 0,0 l/m 0 min 0 min 0 W/m 6,4 km/h (2 Bft) 97,87 %
24.04.2023 22:26 7,9 C 7,2 C 3,9 C 85 % 1010,8 hPa 0,0 l/m 0 min 0 min 0 W/m 3,2 km/h (1 Bft) 97,87 %
24.04.2023 22:28 7,9 C 7,2 C 3,9 C 85 % 1010,7 hPa 0,0 l/m 0 min 0 min 0 W/m 3,2 km/h (1 Bft) 95,65 %
24.04.2023 22:30 7,9 C 7,2 C 3,3 C 85 % 1010,7 hPa 0,0 l/m 0 min 0 min 0 W/m 3,2 km/h (1 Bft) 97,87 %
24.04.2023 22:32 7,9 C 6,7 C 3,3 C 85 % 1010,7 hPa 0,0 l/m 0 min 0 min 0 W/m 3,2 km/h (1 Bft) 97,87 %
24.04.2023 22:34 7,9 C 6,7 C 3,3 C 85 % 1010,7 hPa 0,0 l/m 0 min 0 min 0 W/m 6,4 km/h (2 Bft) 97,87 %
24.04.2023 22:36 7,8 C 6,7 C 3,3 C 85 % 1010,8 hPa 0,0 l/m 0 min 0 min 0 W/m 6,4 km/h (2 Bft) 95,74 %
24.04.2023 22:38 7,8 C 6,7 C 3,3 C 85 % 1010,8 hPa 0,0 l/m 0 min 0 min 0 W/m 3,2 km/h (1 Bft) 97,87 %
24.04.2023 22:40 7,8 C 6,7 C 3,3 C 85 % 1010,8 hPa 0,0 l/m 0 min 0 min 0 W/m 6,4 km/h (2 Bft) 97,87 %
24.04.2023 22:42 7,8 C 6,7 C 3,3 C 85 % 1010,8 hPa 0,0 l/m 0 min 0 min 0 W/m 3,2 km/h (1 Bft) 97,83 %
24.04.2023 22:44 7,7 C 6,7 C 3,3 C 85 % 1010,8 hPa 0,0 l/m 0 min 0 min 0 W/m 3,2 km/h (1 Bft) 93,75 %
24.04.2023 22:46 7,7 C 6,7 C 3,3 C 85 % 1010,8 hPa 0,0 l/m 0 min 0 min 0 W/m 3,2 km/h (1 Bft) 93,48 %
24.04.2023 22:48 7,7 C 6,7 C 3,3 C 85 % 1010,8 hPa 0,0 l/m 0 min 0 min 0 W/m 3,2 km/h (1 Bft) 100,00 %
24.04.2023 22:50 7,6 C 6,7 C 3,3 C 85 % 1010,8 hPa 0,0 l/m 0 min 0 min 0 W/m 3,2 km/h (1 Bft) 93,62 %
24.04.2023 22:52 7,6 C 6,7 C 3,3 C 85 % 1010,8 hPa 0,0 l/m 0 min 0 min 0 W/m 6,4 km/h (2 Bft) 97,87 %
24.04.2023 22:54 7,6 C 6,7 C 3,3 C 85 % 1010,8 hPa 0,0 l/m 0 min 0 min 0 W/m 6,4 km/h (2 Bft) 97,87 %
24.04.2023 22:56 7,6 C 6,7 C 3,3 C 86 % 1010,8 hPa 0,0 l/m 0 min 0 min 0 W/m 3,2 km/h (1 Bft) 97,87 %
24.04.2023 22:58 7,5 C 6,7 C 3,3 C 86 % 1010,8 hPa 0,0 l/m 0 min 0 min 0 W/m 6,4 km/h (2 Bft) 97,87 %
24.04.2023 23:00 7,5 C 6,7 C 3,3 C 86 % 1010,8 hPa 0,0 l/m 0 min 0 min 0 W/m 3,2 km/h (1 Bft) 95,65 %
24.04.2023 23:02 7,4 C 6,7 C 3,3 C 86 % 1010,8 hPa 0,0 l/m 0 min 0 min 0 W/m 0,0 km/h (0 Bft) 95,74 %
24.04.2023 23:04 7,4 C 6,7 C 3,3 C 86 % 1010,8 hPa 0,0 l/m 0 min 0 min 0 W/m 0,0 km/h (0 Bft) 95,83 %
24.04.2023 23:06 7,4 C 6,7 C 3,3 C 86 % 1010,8 hPa 0,0 l/m 0 min 0 min 0 W/m 6,4 km/h (2 Bft) 95,74 %
24.04.2023 23:08 7,4 C 6,7 C 3,3 C 86 % 1010,8 hPa 0,0 l/m 0 min 0 min 0 W/m 6,4 km/h (2 Bft) 55,32 %
24.04.2023 23:10 7,3 C 6,7 C 3,3 C 86 % 1010,8 hPa 0,0 l/m 0 min 0 min 0 W/m 3,2 km/h (1 Bft) 100,00 %
24.04.2023 23:12 7,3 C 6,1 C 3,3 C 86 % 1010,8 hPa 0,0 l/m 0 min 0 min 0 W/m 6,4 km/h (2 Bft) 100,00 %
24.04.2023 23:14 7,3 C 6,7 C 3,3 C 86 % 1010,8 hPa 0,0 l/m 0 min 0 min 0 W/m 9,7 km/h (2 Bft) 100,00 %
24.04.2023 23:16 7,3 C 6,7 C 3,3 C 86 % 1010,8 hPa 0,0 l/m 0 min 0 min 0 W/m 6,4 km/h (2 Bft) 100,00 %
24.04.2023 23:18 7,2 C 6,7 C 3,3 C 86 % 1010,8 hPa 0,0 l/m 0 min 0 min 0 W/m 6,4 km/h (2 Bft) 100,00 %
24.04.2023 23:20 7,2 C 6,7 C 3,3 C 86 % 1010,8 hPa 0,0 l/m 0 min 0 min 0 W/m 6,4 km/h (2 Bft) 100,00 %
24.04.2023 23:22 7,2 C 6,7 C 3,3 C 86 % 1010,8 hPa 0,0 l/m 0 min 0 min 0 W/m 12,9 km/h (3 Bft) 100,00 %
24.04.2023 23:24 7,2 C 6,7 C 3,3 C 86 % 1010,8 hPa 0,0 l/m 0 min 0 min 0 W/m 9,7 km/h (2 Bft) 97,83 %
24.04.2023 23:26 7,2 C 6,7 C 3,3 C 86 % 1010,8 hPa 0,0 l/m 0 min 0 min 0 W/m 9,7 km/h (2 Bft) 100,00 %
24.04.2023 23:28 7,2 C 6,7 C 3,3 C 86 % 1010,7 hPa 0,0 l/m 0 min 0 min 0 W/m 6,4 km/h (2 Bft) 100,00 %
24.04.2023 23:30 7,2 C 6,1 C 3,3 C 86 % 1010,8 hPa 0,0 l/m 0 min 0 min 0 W/m 9,7 km/h (2 Bft) 100,00 %
24.04.2023 23:32 7,1 C 6,1 C 3,3 C 86 % 1010,8 hPa 0,0 l/m 0 min 0 min 0 W/m 12,9 km/h (3 Bft) 97,87 %
24.04.2023 23:34 7,1 C 6,1 C 2,8 C 86 % 1010,7 hPa 0,0 l/m 0 min 0 min 0 W/m 9,7 km/h (2 Bft) 100,00 %
24.04.2023 23:36 7,1 C 6,1 C 2,8 C 86 % 1010,8 hPa 0,0 l/m 0 min 0 min 0 W/m 6,4 km/h (2 Bft) 100,00 %
24.04.2023 23:38 7,1 C 6,1 C 2,8 C 86 % 1010,7 hPa 0,0 l/m 0 min 0 min 0 W/m 6,4 km/h (2 Bft) 97,87 %
24.04.2023 23:40 7,1 C 6,1 C 2,8 C 86 % 1010,7 hPa 0,0 l/m 0 min 0 min 0 W/m 6,4 km/h (2 Bft) 100,00 %
24.04.2023 23:42 7,1 C 6,1 C 2,8 C 86 % 1010,7 hPa 0,0 l/m 0 min 0 min 0 W/m 6,4 km/h (2 Bft) 100,00 %
24.04.2023 23:44 7,0 C 6,1 C 2,8 C 86 % 1010,7 hPa 0,0 l/m 0 min 0 min 0 W/m 6,4 km/h (2 Bft) 100,00 %
24.04.2023 23:46 6,9 C 6,1 C 2,8 C 86 % 1010,7 hPa 0,0 l/m 0 min 0 min 0 W/m 3,2 km/h (1 Bft) 100,00 %
24.04.2023 23:48 6,9 C 6,1 C 2,8 C 86 % 1010,7 hPa 0,0 l/m 0 min 0 min 0 W/m 3,2 km/h (1 Bft) 100,00 %
24.04.2023 23:50 6,9 C 6,1 C 2,8 C 86 % 1010,7 hPa 0,0 l/m 0 min 0 min 0 W/m 6,4 km/h (2 Bft) 100,00 %
24.04.2023 23:52 6,9 C 6,1 C 2,8 C 86 % 1010,7 hPa 0,0 l/m 0 min 0 min 0 W/m 9,7 km/h (2 Bft) 100,00 %
24.04.2023 23:54 6,9 C 6,1 C 2,8 C 86 % 1010,7 hPa 0,0 l/m 0 min 0 min 0 W/m 3,2 km/h (1 Bft) 100,00 %
24.04.2023 23:56 6,9 C 6,1 C 2,8 C 86 % 1010,7 hPa 0,0 l/m 0 min 0 min 0 W/m 6,4 km/h (2 Bft) 100,00 %
24.04.2023 23:58 6,8 C 6,1 C 2,8 C 86 % 1010,7 hPa 0,0 l/m 0 min 0 min 0 W/m 3,2 km/h (1 Bft) 100,00 %
_ Min-Zeit 23:58 09:30 09:30 17:24 00:04 - - - - 21:54 10:24
Minimum _ 6,8 C 6,1 C 2,8 C 71 % 1001,5 hPa - - - - 0,0 km/h (0 Bft) 41,67 %
_ Max-Zeit 17:22 17:20 17:14 10:22 22:14 07:26 18:12 12:12 17:14 00:34 00:20
Maximum _ 12,1 C 15,0 C 8,3 C 96 % 1010,9 hPa 0,2 l/m 4 min 4 min 698 W/m 61,2 km/h
SW (7 Bft)
100,00 %
Durchschnitt _ 9,5 C 9,1 C 5,4 C 85 % 1005,8 hPa #7,6 l/m #2:22 h #5:22 h 166 W/m 20,0 km/h (4 Bft) 97,18 %
© 2023 W. Hausmann